GEFSCGP_500_meanwind_000.txt.gz
Wind_Speed
24 27 30 31 33 35 37 39 39 40 41 42 43 43 45 47 48 47 47 48 47 44 41 35 31 29 27 27 25 26 29 28 25 24 26 25 21 20 19 18 19 19 20 19
20 23 26 29 32 34 36 37 37 38 40 40 40 40 43 44 46 47 46 46 45 43 41 38 33 32 32 30 28 27 29 32 29 26 25 25 22 21 22 22 22 23 23 22
23 24 27 29 31 34 35 36 37 39 38 38 39 39 40 42 44 45 45 44 44 42 39 36 33 31 32 37 32 29 31 36 36 32 27 27 26 26 26 24 25 26 25 25
22 25 26 28 31 34 34 35 36 36 36 35 36 37 35 35 37 40 42 42 41 39 39 39 37 34 30 36 36 36 36 37 43 41 34 32 29 27 26 27 26 27 28 28
26 30 32 34 35 37 38 38 38 39 39 39 37 39 38 37 38 36 35 36 37 37 37 36 37 36 34 37 37 40 44 44 46 40 35 33 31 25 24 28 28 29 29 28
33 37 39 41 42 42 43 44 45 48 46 45 43 43 42 41 39 36 32 30 32 33 34 34 36 37 37 41 44 44 48 46 47 38 32 32 29 24 25 29 29 28 29 29
35 40 43 45 45 45 47 49 52 54 53 52 49 48 44 40 36 32 29 27 30 34 35 35 36 36 37 39 44 49 49 48 48 41 35 33 28 25 26 29 30 30 31 31
42 43 46 50 52 52 51 51 49 51 51 51 49 45 41 38 34 31 26 24 25 33 37 37 39 41 41 41 41 48 47 45 52 43 33 30 25 24 27 32 31 29 30 28
51 51 53 53 54 53 50 46 43 39 36 36 34 33 32 32 32 32 27 24 22 26 33 36 37 41 39 40 43 48 49 47 49 44 35 26 22 25 26 28 28 28 27 28
49 44 39 34 31 29 28 24 16 11 12 12 10 11 12 16 20 23 22 19 18 20 23 28 35 35 39 36 34 33 34 27 17 22 22 21 25 24 22 25 25 28 29 31
31 28 25 23 19 14 15 16 7 2 3 3 7 8 6 9 16 15 12 15 11 10 13 18 28 33 36 43 26 25 18 8 11 12 15 22 25 21 19 21 25 29 30 31
24 21 21 22 22 18 17 13 8 6 6 6 7 12 5 2 7 7 7 12 7 5 0 4 4 12 6 11 5 9 13 12 10 10 17 21 23 22 21 21 19 20 23 24
26 22 21 21 22 24 22 18 15 16 14 12 11 10 7 1 5 3 7 13 9 8 5 10 12 13 15 14 11 9 5 4 9 13 15 18 16 12 13 14 15 21 21 21
27 22 21 21 21 21 24 22 19 17 15 12 13 10 12 10 9 9 10 13 14 10 15 16 16 13 12 7 3 1 3 9 14 19 20 15 9 9 11 13 16 22 23 22
25 24 21 21 23 25 21 19 20 18 18 18 15 12 12 10 7 6 5 8 9 11 16 18 14 10 5 1 3 6 7 10 13 14 16 14 12 12 14 17 20 21 19 17
24 24 24 24 24 25 22 20 19 18 19 20 18 19 17 16 11 6 5 4 8 9 13 14 7 2 3 6 5 5 7 9 13 14 14 15 16 17 19 21 20 17 15 13
24 26 29 28 27 27 22 19 20 20 21 20 19 15 13 15 15 17 11 9 7 6 7 8 9 6 4 4 3 4 5 7 9 10 12 13 15 19 21 17 13 13 14 14
19 20 21 23 24 23 24 21 19 20 21 23 22 22 21 17 14 14 18 15 10 8 7 5 3 3 3 3 3 4 8 10 11 12 13 16 19 20 17 15 15 15 15 16
22 21 18 18 20 21 22 19 15 11 14 18 18 19 21 24 22 18 19 20 18 15 11 9 7 8 7 8 8 10 13 16 17 18 19 19 20 19 17 16 17 17 15 14
19 21 20 19 19 19 20 19 15 13 13 15 16 18 19 25 22 20 20 19 19 18 14 12 11 11 11 12 13 14 14 14 15 16 16 17 19 20 19 19 19 18 15 13
17 18 17 18 17 17 17 17 17 16 14 14 15 15 16 18 18 17 18 17 17 15 13 13 14 14 15 16 17 17 18 18 18 18 18 19 21 21 21 21 20 19 17 15
19 17 16 16 16 16 16 14 14 14 12 9 9 10 11 12 13 15 16 16 16 15 14 16 18 18 18 18 18 18 17 17 17 18 19 20 21 21 21 20 19 16 14 14
22 20 18 19 19 17 16 11 10 11 10 9 8 8 8 9 11 12 14 15 15 14 14 15 15 15 15 16 17 17 17 18 18 19 19 20 21 21 20 19 17 15 13 13
25 22 21 23 25 20 14 10 8 7 6 7 7 7 6 7 8 10 13 14 15 16 16 15 14 14 14 15 17 18 20 21 20 20 20 20 21 21 19 16 15 14 13 13
29 28 25 25 29 29 19 10 6 5 4 5 5 5 5 5 6 9 11 12 13 14 16 17 16 15 15 16 16 17 17 18 19 19 19 18 18 18 16 15 15 15 15 13
25 28 29 28 29 31 31 20 9 3 2 1 2 3 4 4 4 6 8 10 11 12 16 20 19 16 16 16 16 15 15 15 16 16 16 17 18 19 18 16 15 14 16 15

GEFSCGP_500_meanwind_006.txt.gz
Wind_Speed
25 27 29 30 31 33 35 37 39 41 41 41 43 45 45 44 43 43 42 41 40 40 38 38 38 37 36 36 35 33 32 31 30 30 30 29 28 27 28 29 29 29 30 29
24 27 28 30 32 34 36 37 39 40 40 41 41 43 43 42 41 40 39 38 36 35 34 34 35 36 37 37 37 36 35 35 35 34 35 35 32 29 30 32 33 33 32 31
26 28 31 34 36 37 38 39 40 40 40 40 40 41 40 39 37 36 34 33 31 29 28 28 30 32 34 36 38 38 38 38 38 38 39 40 37 34 34 35 36 37 35 33
27 29 32 35 37 38 41 42 42 42 42 42 41 40 40 35 34 32 32 31 29 28 27 27 27 29 31 35 38 39 39 39 40 41 43 45 41 38 39 39 39 39 37 34
32 35 37 40 42 44 45 46 47 46 46 46 46 45 44 40 37 35 35 34 32 31 30 29 28 29 31 35 39 40 40 41 42 43 46 49 46 41 43 43 39 37 36 34
30 32 34 37 40 42 44 46 48 48 47 48 45 45 45 46 40 39 38 37 36 35 34 33 32 32 33 35 39 41 42 44 45 45 48 50 49 44 44 45 41 37 35 34
24 23 23 25 29 32 35 36 38 39 40 40 45 44 45 46 43 41 40 40 40 39 38 38 37 36 36 35 38 40 42 44 45 45 46 48 47 47 47 46 44 40 37 34
21 21 21 22 24 25 25 23 22 23 25 29 33 35 38 37 39 39 38 38 38 39 40 39 39 39 37 36 37 38 39 40 41 41 44 44 44 46 49 49 46 43 38 33
21 21 21 23 24 24 20 17 13 8 6 8 13 20 26 29 32 33 32 31 31 33 33 35 36 36 36 34 34 36 36 35 36 36 37 40 42 45 47 48 45 40 35 29
23 22 22 22 23 23 22 19 13 10 8 6 6 5 7 12 16 16 15 14 15 17 20 24 27 28 27 27 28 32 33 31 32 33 35 38 41 43 40 39 35 30 24 17
27 24 21 20 20 21 20 19 17 15 14 12 10 10 8 4 4 5 7 8 7 5 6 10 15 19 21 22 24 27 29 29 28 29 31 33 32 31 28 24 21 18 15 14
31 27 23 20 21 23 22 19 17 16 16 16 15 14 10 5 5 7 10 11 9 8 6 4 3 3 5 8 11 15 19 21 22 22 23 21 19 16 15 13 12 12 12 15
33 31 26 22 22 23 24 22 19 16 15 14 14 11 10 7 5 8 10 10 8 7 7 11 13 13 11 10 9 8 9 10 11 10 8 6 5 5 4 5 6 7 9 13
31 31 29 26 24 24 26 25 23 20 18 17 16 14 14 16 14 11 12 11 9 9 9 10 13 13 13 12 12 12 14 15 14 12 10 9 8 7 5 3 3 7 11 15
29 30 29 27 26 26 28 28 26 25 22 21 21 20 18 16 16 15 16 14 13 11 10 9 12 14 14 15 16 17 16 15 13 11 10 9 7 5 1 3 7 11 14 16
27 27 27 27 25 25 27 28 28 28 25 22 21 20 17 15 14 15 15 15 12 10 8 7 9 12 13 14 15 15 13 12 10 9 8 6 5 3 4 7 9 11 14 16
25 25 26 26 25 24 24 24 24 25 24 21 20 22 21 19 18 17 16 15 12 9 8 9 10 11 11 11 11 10 10 9 8 7 5 5 5 6 8 9 11 13 15 17
24 23 23 24 24 23 22 22 22 23 25 22 20 21 22 22 21 19 18 17 15 14 14 14 15 14 13 12 11 10 9 8 8 7 7 8 9 10 11 13 14 16 18 20
27 24 23 21 21 20 20 20 20 21 22 22 21 21 21 22 22 20 19 17 16 16 15 14 13 12 12 11 11 11 11 10 10 10 10 10 11 12 13 14 15 17 18 19
30 29 25 22 18 17 17 16 17 17 18 19 19 20 21 22 21 18 18 17 15 14 13 12 12 12 12 13 13 13 13 13 12 11 11 11 11 12 14 14 15 16 16 17
31 32 30 25 18 14 14 13 13 14 15 15 17 18 20 19 18 16 16 16 15 14 12 12 12 13 14 14 14 13 13 12 12 11 12 13 14 15 15 15 15 16 16 16
30 32 33 30 23 16 13 11 12 11 11 12 13 15 16 16 16 16 16 16 15 15 14 14 15 15 15 15 14 14 13 12 12 12 14 15 16 16 16 17 17 17 16 15
27 30 31 32 29 23 17 12 11 10 10 11 12 12 12 13 13 14 14 14 15 16 16 15 16 15 15 15 14 14 13 12 13 14 15 17 18 18 18 19 19 19 18 17
24 26 28 30 31 28 22 15 11 10 10 11 11 11 10 10 11 11 11 11 14 16 16 15 15 16 16 16 15 14 13 13 14 15 17 19 20 20 20 20 20 20 20 20
18 21 24 26 28 29 27 20 14 10 9 10 11 11 10 8 8 9 8 8 10 13 14 14 14 15 16 16 15 14 14 13 14 15 17 19 19 20 21 21 22 22 22 21
13 16 19 23 25 27 27 25 20 13 9 7 7 9 10 9 6 6 7 7 8 10 11 12 13 13 14 14 15 14 14 14 14 14 16 17 19 20 21 22 23 24 24 24

GEFSCGP_500_meanwind_012.txt.gz
Wind_Speed
21 24 27 27 28 30 31 32 34 35 38 42 44 44 45 45 43 42 42 44 44 45 44 42 40 40 39 39 38 37 37 36 34 32 31 31 31 30 29 28 28 28 29 29
23 25 25 25 29 31 32 34 36 38 40 43 45 45 43 44 43 42 41 41 42 42 42 40 39 39 38 37 36 36 35 35 34 32 32 33 34 34 32 31 30 29 30 30
24 26 27 28 30 30 30 34 37 39 40 42 43 44 43 42 43 43 41 39 39 38 37 36 35 35 34 32 31 30 30 30 30 31 31 34 35 34 33 32 32 31 31 32
21 21 21 22 23 24 25 28 31 34 38 39 39 42 37 34 40 42 41 39 36 34 33 31 31 31 30 29 28 26 25 25 26 28 30 33 35 36 36 37 38 34 33 34
15 16 17 19 20 22 24 28 31 34 34 33 32 33 32 35 40 41 39 38 38 36 33 30 29 29 29 29 28 26 26 25 26 28 30 31 34 37 39 42 42 39 37 38
16 18 20 22 23 25 27 29 31 30 26 23 21 24 29 35 39 40 37 37 37 36 34 32 31 30 30 30 30 30 29 28 29 30 32 33 34 38 41 43 43 41 39 40
19 18 19 21 22 24 26 27 27 24 19 16 16 19 26 31 37 40 40 39 37 36 35 33 33 33 33 33 33 33 33 32 33 34 34 34 35 37 41 43 43 39 39 40
21 21 20 19 21 23 23 22 23 20 15 13 14 17 19 23 29 35 40 43 41 38 37 35 35 34 34 34 35 36 36 36 36 36 36 34 33 34 37 38 39 39 38 38
19 18 18 18 20 22 22 21 20 18 14 13 14 15 18 21 24 26 30 34 36 36 34 33 33 33 33 34 35 36 37 38 37 36 34 32 31 31 32 33 35 36 36 35
18 17 18 20 22 22 23 21 19 17 14 12 12 14 15 14 16 16 18 21 22 22 22 23 23 25 28 30 33 35 35 35 34 32 30 29 28 28 28 27 29 31 33 34
19 19 19 21 22 22 23 22 20 17 15 14 14 15 16 13 12 10 6 5 9 9 10 10 12 14 16 19 23 25 27 28 28 27 25 24 24 25 25 26 28 29 30 31
20 19 20 22 23 23 23 22 21 18 16 16 16 17 16 12 11 9 8 8 7 6 5 4 3 5 7 9 11 13 16 17 19 19 19 19 20 21 22 24 24 24 23 21
20 21 23 24 25 24 22 21 22 21 20 19 19 20 18 15 13 14 16 17 17 17 17 14 12 9 5 2 3 4 6 8 10 10 11 13 14 15 15 14 13 13 12 13
20 21 22 22 22 20 20 22 24 23 21 20 21 20 19 18 17 16 17 19 20 21 20 20 20 19 17 15 12 9 8 7 5 4 2 2 2 2 3 3 4 5 6 8
21 21 20 20 21 21 22 24 26 25 24 22 22 22 20 19 18 18 19 20 20 20 20 19 19 18 18 17 17 17 16 15 14 13 11 9 8 6 6 7 8 10 11 12
23 21 20 21 21 21 24 25 26 27 26 25 24 24 23 22 21 20 20 21 21 20 19 17 16 16 15 15 14 13 12 12 11 10 9 9 8 8 9 10 11 13 14 15
26 23 22 21 19 20 24 24 25 25 25 25 25 24 24 23 23 23 23 22 22 21 20 19 18 17 16 15 13 12 11 10 9 8 7 7 8 8 9 11 12 14 15 17
30 26 23 21 21 22 21 21 22 23 23 23 23 22 22 21 21 22 22 21 21 21 20 20 18 17 16 15 13 12 12 11 10 10 9 9 9 10 10 11 12 13 14 16
31 29 26 23 20 18 17 17 18 19 20 21 20 19 18 18 20 21 21 20 20 19 19 19 17 16 15 14 14 13 13 12 12 12 12 12 12 12 12 13 13 13 14 15
30 29 28 26 22 18 17 16 16 16 17 18 18 17 17 18 20 20 20 19 18 18 18 17 16 15 15 14 14 14 14 15 15 15 15 15 15 15 15 15 15 15 16 16
27 28 27 27 24 20 17 16 15 14 16 16 16 16 16 17 17 18 19 19 18 18 18 17 16 16 15 15 15 15 16 16 16 16 16 17 17 18 19 19 20 20 20 19
23 25 26 26 25 21 19 17 16 16 15 15 15 14 15 15 16 17 18 18 18 18 18 17 16 16 15 15 15 16 16 16 16 17 17 19 20 21 23 24 24 25 24 22
18 20 23 24 24 24 21 18 17 16 16 16 15 14 14 14 15 15 16 17 18 18 17 16 16 15 15 15 15 15 15 15 16 17 18 20 22 24 25 26 27 28 26 23
13 15 17 19 21 22 21 19 17 16 16 16 16 15 13 13 13 14 15 15 16 16 16 15 15 14 15 14 14 14 14 15 16 17 18 20 22 24 26 27 28 29 27 25
10 11 12 14 16 18 19 19 18 17 16 15 15 15 14 13 13 14 14 15 15 15 15 14 14 14 14 14 15 15 14 15 16 17 18 19 21 24 26 27 28 29 28 27
9 9 9 11 12 13 15 16 17 17 16 15 15 15 14 14 14 14 14 14 14 13 13 12 12 13 13 14 15 15 15 15 15 16 17 18 20 22 25 26 27 28 28 28

GEFSCGP_500_meanwind_018.txt.gz
Wind_Speed
17 20 21 22 24 25 26 26 27 29 30 31 32 34 36 40 43 44 44 44 45 44 42 41 41 41 41 41 41 41 40 38 37 36 34 33 31 31 32 32 32 30 30 30
17 18 20 21 22 23 23 22 23 24 26 27 30 32 35 39 42 45 47 48 48 47 43 41 41 42 41 41 42 42 41 40 39 38 36 34 33 33 33 33 33 33 33 32
15 16 16 18 18 19 20 20 20 21 24 26 29 32 34 38 41 44 46 47 48 48 46 43 42 42 42 42 42 41 40 40 39 38 36 35 34 33 32 32 31 32 32 30
12 15 16 17 18 18 20 21 22 24 25 27 29 32 33 35 38 41 44 45 46 47 45 43 42 42 41 41 41 41 40 40 39 38 36 34 33 31 31 30 31 31 31 30
12 15 16 17 17 17 18 20 22 23 24 26 28 31 31 32 33 35 39 42 42 43 43 42 41 41 40 40 40 40 39 39 38 37 35 33 31 30 29 29 29 30 30 32
12 14 15 16 15 16 17 19 19 19 20 22 24 26 26 26 27 28 31 34 38 38 37 37 37 37 37 38 38 38 38 37 37 36 35 33 31 30 29 28 29 29 31 32
11 13 14 15 16 16 16 17 17 17 18 18 19 20 22 23 24 24 25 26 29 33 33 32 32 32 33 34 35 36 36 36 36 35 35 34 33 32 31 31 31 32 32 34
12 13 15 16 15 14 15 14 14 14 15 15 17 18 19 20 21 21 21 21 22 24 26 27 27 28 29 31 33 35 36 36 36 36 36 36 36 35 35 35 36 36 35 34
14 15 16 15 13 13 13 13 13 13 14 14 14 16 17 19 19 18 17 18 17 14 14 16 18 20 23 27 30 32 34 36 37 37 37 37 38 39 39 40 40 39 37 35
15 15 15 15 14 14 13 13 13 14 14 14 13 14 14 16 17 17 17 17 15 13 9 7 9 12 16 20 23 27 30 33 34 35 37 38 39 40 41 41 41 39 38 36
15 15 14 14 14 15 15 14 13 13 13 13 13 15 17 19 20 19 18 18 16 14 11 6 3 6 9 12 14 17 21 25 28 30 32 34 35 36 36 36 35 34 33 32
17 16 16 16 17 18 17 16 15 15 14 14 14 17 20 20 20 21 21 20 19 17 15 13 10 6 2 1 2 4 7 10 14 17 19 21 22 23 24 25 25 26 26 27
21 19 18 18 20 19 18 18 19 18 17 15 17 19 21 21 21 21 21 22 22 22 21 20 19 17 13 11 9 7 6 4 2 3 5 7 9 11 12 14 15 17 18 19
22 21 21 20 20 20 20 20 21 22 21 20 20 21 21 21 21 21 21 21 20 20 19 20 19 20 20 19 17 16 15 14 13 12 10 8 6 5 5 5 6 7 7 8
23 22 21 20 20 21 22 22 23 23 22 23 23 22 21 20 21 21 21 21 20 20 20 19 19 19 19 19 18 18 18 18 17 16 15 14 12 11 10 9 9 9 9 9
24 22 21 20 20 22 23 23 23 23 22 22 22 21 21 20 20 21 21 21 20 20 20 19 19 19 19 18 18 18 17 17 16 16 15 14 13 13 12 12 11 11 12 12
24 23 21 19 20 21 23 23 23 22 22 21 21 20 20 20 20 19 19 19 19 19 18 18 18 18 19 19 19 19 19 19 18 17 17 16 16 15 15 14 14 14 14 14
24 23 22 21 21 22 22 22 22 22 21 20 19 19 19 20 19 19 20 20 19 19 18 18 18 18 19 19 19 19 19 19 19 19 18 18 18 17 17 17 17 16 16 17
23 23 23 22 22 22 22 21 21 20 19 19 18 18 18 19 19 20 20 21 20 20 19 19 19 19 20 19 19 19 19 19 19 19 19 19 19 19 18 18 18 18 18 18
20 21 23 23 22 22 21 21 21 20 19 19 19 19 18 18 19 20 20 20 20 20 20 19 19 19 19 18 17 18 18 18 19 19 20 21 21 21 21 20 20 18 18 18
15 17 19 20 21 22 22 21 21 20 20 19 19 19 19 19 20 20 20 20 20 19 19 19 19 18 18 17 17 17 17 18 18 20 21 22 23 23 23 22 21 20 19 19
10 12 14 16 18 19 20 20 20 20 21 20 20 20 20 20 20 20 19 19 18 18 17 17 17 17 17 17 17 18 18 18 18 20 21 22 23 24 25 25 24 22 22 21
6 8 10 12 14 15 17 18 19 20 20 21 21 21 21 21 20 19 18 17 16 16 16 16 16 16 17 17 18 18 18 17 18 19 20 22 23 24 25 25 25 25 24 24
5 5 6 8 9 11 13 15 17 18 19 20 21 22 22 22 21 19 18 16 15 14 14 14 15 15 16 17 17 18 18 17 18 18 19 21 22 24 25 25 25 25 26 26
6 5 5 6 7 8 9 11 13 15 17 18 19 20 21 22 22 20 19 17 14 13 12 12 13 13 14 15 16 17 18 18 17 18 18 20 21 22 23 24 25 25 26 26
7 7 7 8 8 8 8 8 9 11 13 15 17 18 20 21 22 22 20 17 15 13 11 10 10 11 12 13 15 16 17 17 17 17 18 18 19 20 22 23 24 25 25 26

GEFSCGP_500_meanwind_024.txt.gz
Wind_Speed
21 23 24 25 26 26 26 26 27 27 27 28 29 30 31 32 33 34 35 37 39 41 43 45 47 49 49 49 49 48 47 47 46 44 43 41 39 38 37 35 34 33 32 32
21 22 23 23 22 22 22 22 23 24 24 25 27 28 30 31 32 34 36 39 41 42 44 45 48 50 51 51 51 52 51 49 48 47 46 45 43 41 40 39 38 37 36 35
20 20 19 19 19 19 19 21 21 22 23 24 26 27 28 30 33 35 38 40 42 42 43 45 47 48 49 50 51 51 51 51 50 49 47 46 44 43 42 42 42 41 40 39
17 17 17 17 17 18 18 19 20 21 23 25 25 27 26 29 32 34 37 39 40 40 40 41 44 45 46 47 49 49 49 49 49 48 47 46 44 43 43 43 43 43 43 42
15 15 15 16 16 17 17 18 19 20 21 22 22 24 25 26 28 31 33 34 34 35 35 36 37 38 39 41 42 43 44 44 44 45 45 44 43 42 42 42 42 42 42 42
14 14 14 14 15 15 15 16 17 18 19 19 20 22 22 22 23 25 26 28 29 29 29 30 30 30 30 30 31 33 35 37 39 40 41 42 41 40 39 39 39 39 39 39
13 13 13 13 13 13 14 15 15 15 15 16 17 18 19 19 21 22 22 22 22 23 24 24 23 21 21 21 21 23 26 29 32 34 36 37 37 37 37 36 35 35 34 34
11 10 11 11 11 11 12 12 12 13 13 13 14 15 17 18 20 21 22 21 20 20 20 18 16 14 13 13 13 14 17 21 25 28 30 31 32 32 32 32 31 31 32 32
9 9 9 10 10 10 10 10 10 10 11 11 12 14 16 18 19 20 21 21 20 19 19 18 15 13 10 8 8 8 10 14 17 20 22 24 26 27 27 28 29 30 31 32
9 9 10 10 10 9 10 10 9 8 9 10 12 14 16 17 18 19 20 21 21 21 22 19 15 12 11 8 6 6 6 7 9 12 16 19 21 22 23 25 27 29 31 33
11 12 12 12 12 12 11 10 9 8 9 11 13 15 16 16 18 19 20 21 21 21 22 20 18 15 13 11 9 8 6 4 2 4 7 10 12 15 18 20 22 25 28 30
13 14 14 14 13 13 13 12 11 10 12 13 14 15 16 17 19 20 21 21 21 21 21 21 20 18 16 15 14 12 10 9 8 6 3 1 2 4 7 10 13 15 17 19
15 16 16 15 15 15 15 14 13 13 14 14 15 16 17 18 20 21 21 21 21 21 21 21 21 21 18 18 17 16 16 15 14 13 11 9 7 5 3 3 4 6 8 10
16 17 17 17 17 16 16 15 15 15 15 15 16 17 18 19 20 21 21 20 21 21 22 22 22 23 23 23 22 21 20 19 18 17 15 14 12 10 9 7 5 5 5 6
16 16 17 17 17 16 16 16 16 17 17 17 18 18 19 19 20 20 20 20 20 21 22 22 22 22 23 23 23 22 21 20 19 18 17 16 14 12 11 9 8 7 7 8
16 16 16 16 16 16 16 16 17 17 18 18 18 18 19 19 20 20 19 19 19 20 21 22 22 22 22 22 22 21 21 20 20 19 18 17 16 14 12 11 10 10 10 11
15 16 16 15 15 16 16 16 17 17 17 18 18 19 19 19 19 19 19 19 19 19 20 21 21 22 21 22 22 21 21 21 20 20 20 19 17 16 15 14 13 12 12 12
15 15 16 15 15 15 16 17 17 17 17 18 18 18 18 18 18 18 18 18 18 18 18 19 19 19 19 20 20 20 20 20 20 21 21 21 20 19 18 17 16 15 14 14
13 13 14 15 15 15 16 17 17 17 17 18 18 18 18 18 17 17 17 17 17 17 17 17 17 18 17 18 18 18 19 20 21 21 22 23 23 22 21 20 18 18 17 17
9 10 11 12 13 15 16 16 17 17 18 18 19 18 17 17 16 16 16 16 16 15 15 15 16 17 17 17 17 17 18 20 20 21 22 23 24 24 23 22 21 21 21 20
6 7 8 9 10 12 14 15 16 16 17 18 19 19 18 17 15 14 14 14 14 14 14 15 15 16 17 17 17 17 18 19 20 20 22 23 24 24 24 23 23 23 23 23
7 6 7 7 8 9 11 13 15 15 16 18 19 19 18 17 15 14 13 13 13 13 13 14 15 16 16 17 17 17 17 18 19 20 22 23 24 24 24 24 24 24 24 25
10 8 8 8 8 8 9 11 12 13 15 16 17 18 18 17 15 14 13 12 12 11 12 12 13 14 15 16 17 17 17 18 19 20 21 22 23 24 24 24 24 24 25 26
13 12 11 10 9 9 9 10 10 12 13 14 15 16 18 17 16 14 13 11 10 9 9 10 11 13 14 15 16 17 17 18 18 19 20 21 22 23 23 23 24 24 25 26
16 15 13 12 11 11 10 10 10 10 11 12 13 14 16 17 16 15 13 11 9 8 7 8 10 11 12 13 14 16 17 18 19 19 20 20 21 22 23 23 24 24 25 26
17 16 16 15 13 13 11 11 10 10 10 11 11 12 14 15 16 15 14 11 9 7 6 6 7 9 10 11 12 14 16 17 19 20 20 20 21 21 22 23 24 25 25 26

GEFSCGP_500_meanwind_030.txt.gz
Wind_Speed
20 21 22 23 24 25 26 26 27 26 26 26 27 28 27 28 28 29 30 32 33 34 35 37 38 40 42 44 46 48 50 51 52 53 53 54 53 52 51 48 44 41 38 36
19 20 21 23 23 24 24 25 25 25 25 26 26 27 27 27 29 30 30 31 32 34 35 37 39 40 41 42 44 46 48 51 52 53 54 55 55 54 54 52 50 45 42 38
18 19 20 21 22 23 23 24 24 24 24 24 25 25 26 26 28 28 29 29 31 32 33 34 35 36 38 40 42 44 45 47 49 51 52 53 54 55 54 53 51 48 46 42
17 18 19 20 20 20 21 21 22 22 22 22 23 25 23 25 25 26 27 27 29 30 30 30 31 32 34 36 37 38 40 42 44 46 47 48 50 51 51 50 50 49 47 44
15 15 16 16 17 17 18 18 18 19 19 20 20 21 20 21 22 23 24 26 26 27 27 27 28 28 28 27 27 28 30 32 34 37 39 40 42 45 46 46 47 47 46 44
12 12 12 13 14 15 15 16 16 17 17 18 17 17 17 18 19 20 22 23 23 23 24 23 23 22 21 20 20 20 22 23 25 28 30 33 35 38 40 42 43 44 44 43
8 8 9 10 11 12 13 14 14 14 14 14 14 15 16 15 16 16 18 19 19 19 20 20 19 18 16 15 15 15 16 16 16 18 21 25 28 32 35 37 39 40 41 42
6 7 8 9 10 11 11 12 12 12 12 12 13 13 13 13 14 15 16 17 17 19 20 20 18 16 14 14 13 13 12 11 11 10 12 17 20 24 28 31 34 35 37 38
6 7 8 9 10 11 12 11 12 11 11 11 11 12 12 12 14 15 17 17 18 19 19 18 16 15 13 14 13 12 11 9 8 7 6 8 11 14 19 23 26 28 30 32
8 9 9 10 11 12 13 12 12 12 11 11 12 12 13 14 15 16 16 16 17 17 18 17 16 16 15 15 14 14 13 12 10 7 5 3 4 8 12 15 19 22 24 26
11 11 11 12 13 14 14 14 14 13 12 12 12 12 13 14 14 15 15 16 16 16 17 18 18 18 18 17 17 17 15 15 14 11 7 5 1 4 7 10 14 17 19 22
12 13 14 14 15 15 15 15 15 15 14 13 13 13 14 14 14 14 15 15 15 16 17 18 19 19 20 20 20 20 18 18 16 14 12 9 6 2 1 5 8 12 15 18
13 14 14 15 16 16 16 16 16 15 15 15 14 14 15 14 14 14 14 15 15 16 17 18 20 21 20 21 21 21 21 20 18 16 14 12 9 6 3 2 4 6 9 12
13 14 14 15 16 16 16 17 17 17 17 17 16 16 16 15 14 14 15 15 16 16 17 18 19 20 21 20 21 21 21 21 20 19 17 15 12 9 7 5 3 3 5 7
13 13 13 14 15 16 16 17 17 18 18 18 17 17 17 16 15 15 15 15 15 16 17 17 18 19 20 20 20 21 21 21 21 20 19 17 15 12 10 8 6 5 4 5
13 13 13 13 14 15 16 17 18 18 18 18 18 18 17 16 15 15 14 15 15 16 17 17 18 18 19 20 20 21 21 22 22 22 21 19 18 16 14 12 11 10 8 7
11 12 12 13 14 15 16 17 18 19 19 18 18 17 16 16 15 15 14 14 15 16 17 17 18 18 18 19 20 20 20 21 21 21 21 20 19 18 16 15 14 13 12 11
9 10 11 11 13 13 15 16 17 19 19 19 17 16 16 16 15 14 13 13 13 14 16 17 17 17 18 18 19 19 20 21 21 21 21 20 20 19 17 16 15 15 15 14
6 7 8 10 11 12 13 15 16 18 19 19 18 16 15 15 14 13 13 13 13 14 15 16 16 17 17 17 18 19 19 20 21 21 20 20 19 19 18 17 16 16 16 17
6 7 7 8 9 11 12 14 15 16 18 18 17 16 15 14 13 12 12 11 12 13 14 15 15 16 16 17 17 18 19 19 20 20 20 20 19 19 18 18 17 17 17 18
8 8 8 9 9 10 11 12 14 15 16 17 17 16 15 14 12 12 11 10 10 12 13 14 15 15 16 16 16 17 18 19 19 19 19 19 19 19 19 19 19 19 19 20
11 10 10 10 10 10 11 12 13 13 15 16 16 16 15 14 13 11 10 9 9 10 11 12 13 14 15 16 16 17 18 18 19 19 19 19 20 20 20 20 20 20 20 21
13 13 12 12 12 12 11 11 12 13 13 14 14 15 15 14 13 12 10 9 8 8 9 11 12 13 14 15 16 17 18 18 19 19 19 20 21 21 22 22 21 21 21 22
15 15 14 14 13 13 12 12 12 12 12 13 13 14 14 14 14 12 10 9 8 8 8 9 10 11 12 13 14 16 17 18 19 19 19 20 21 22 22 22 22 22 22 23
17 16 16 15 14 14 13 12 12 12 12 12 12 12 12 12 13 12 11 9 8 7 7 8 9 9 10 11 13 14 16 17 18 19 20 20 21 22 22 22 23 23 23 23
20 19 18 17 16 15 14 14 13 12 12 11 11 10 10 11 11 11 11 10 8 8 7 7 7 8 8 9 10 12 13 15 17 18 20 20 21 22 22 22 23 23 23 23

GEFSCGP_500_meanwind_036.txt.gz
Wind_Speed
18 19 21 22 22 23 25 26 27 34 33 31 32 32 30 28 29 29 31 31 32 33 33 34 34 35 36 36 38 39 39 40 41 42 43 45 46 48 48 49 49 49 49 48
19 19 19 21 22 24 25 26 26 31 28 28 30 30 29 28 28 29 30 31 31 31 32 32 33 34 34 35 36 37 37 38 39 40 42 44 45 47 49 50 50 50 50 50
18 18 18 20 22 22 24 24 24 26 28 27 28 29 28 24 24 26 27 29 29 29 29 29 30 30 31 32 32 33 33 34 35 37 39 40 42 45 47 49 50 51 51 51
15 16 17 19 20 20 20 20 21 23 24 26 25 26 27 23 23 24 24 24 25 25 25 25 26 27 27 27 27 28 28 29 31 32 34 36 38 40 43 46 48 48 49 49
11 13 15 15 16 17 18 18 19 20 20 20 21 23 26 23 23 23 22 23 24 24 24 24 24 24 24 23 24 24 24 25 26 28 30 31 33 34 36 39 41 43 44 45
10 10 11 12 13 15 16 17 17 16 16 17 17 20 24 22 22 22 22 23 24 24 23 23 22 21 20 19 19 19 19 20 22 23 24 25 26 27 29 31 33 36 38 39
5 6 8 10 12 13 14 15 16 16 17 17 18 19 20 20 21 21 21 22 22 21 21 19 18 17 17 17 16 15 16 17 18 18 18 19 19 20 21 23 25 28 31 33
4 5 7 9 11 13 14 15 14 11 9 15 17 18 19 19 19 20 20 20 19 18 18 18 17 16 16 16 16 16 15 16 16 17 16 15 14 14 15 16 18 21 25 28
3 5 7 9 11 13 14 14 14 12 11 10 16 18 16 17 18 19 19 18 17 17 18 18 18 18 18 18 17 17 17 17 17 17 16 15 14 12 11 11 13 15 18 21
4 5 7 9 11 13 14 15 15 14 14 11 13 18 19 19 20 19 17 16 16 17 18 19 19 19 20 20 20 19 19 19 18 18 17 15 14 12 11 10 9 10 12 15
6 7 8 10 12 14 15 16 16 16 16 15 15 17 18 18 18 17 16 16 16 17 18 19 19 20 20 21 21 21 21 21 20 19 18 17 15 14 12 11 9 7 7 9
7 8 9 11 13 15 16 17 17 17 17 16 16 16 16 16 16 16 16 16 16 17 18 19 19 20 21 21 22 22 23 22 22 21 19 18 16 15 13 12 10 9 8 7
8 9 10 12 14 15 16 18 18 18 17 17 17 17 16 16 15 15 15 16 17 18 18 19 19 20 21 21 22 23 23 23 23 22 21 20 18 16 15 13 11 10 9 8
8 9 11 13 14 15 17 18 19 18 18 18 18 17 16 16 15 15 16 16 18 19 19 19 19 20 20 21 22 23 23 23 23 22 21 20 19 18 16 15 13 12 11 10
8 8 10 11 13 15 17 18 19 19 18 18 17 17 16 16 16 15 16 17 18 19 19 18 19 19 20 20 21 22 23 23 23 22 21 21 20 19 17 16 15 14 13 12
7 8 9 10 12 14 15 17 19 19 19 18 17 16 16 15 15 15 16 16 17 18 18 19 18 18 19 20 21 21 22 22 22 22 22 22 20 19 18 18 16 15 14 14
6 7 8 9 11 12 14 16 18 19 19 19 18 16 16 16 15 15 15 16 17 18 18 18 18 18 19 19 20 21 22 22 22 22 22 22 22 20 20 19 17 17 17 16
6 7 8 9 10 12 14 16 17 18 18 19 18 17 16 16 15 14 14 16 17 18 18 18 18 18 18 19 20 21 21 22 22 23 23 23 23 22 21 20 19 19 19 18
6 7 8 9 10 11 12 14 15 16 17 18 18 18 18 17 16 14 14 14 16 17 17 18 18 18 18 19 20 21 21 22 23 24 24 24 24 24 23 22 21 21 21 20
8 9 9 10 11 11 12 13 13 15 15 17 18 18 18 17 16 15 14 14 14 15 16 16 17 17 18 19 19 20 21 22 23 24 25 25 25 24 24 24 23 23 23 23
10 11 11 11 12 12 12 13 13 13 14 16 16 17 18 18 17 16 15 14 14 14 15 16 16 16 17 18 18 19 20 21 23 24 25 25 26 26 25 25 24 24 24 24
13 13 13 13 13 12 13 13 13 13 13 14 15 16 17 17 17 16 15 14 14 14 14 15 15 15 15 16 17 18 20 21 22 24 25 25 26 27 27 26 25 25 25 25
15 15 15 15 15 15 15 15 14 14 14 13 13 14 15 16 16 16 15 14 14 14 13 13 13 14 14 15 16 17 18 20 21 23 24 25 26 27 27 27 26 26 25 25
17 17 18 18 18 17 17 17 16 16 15 14 14 13 13 14 14 15 15 14 14 14 13 13 12 12 13 13 14 15 16 18 19 21 22 24 25 26 27 27 27 26 25 25
20 20 20 20 20 20 19 18 18 18 17 17 16 15 14 13 13 13 13 14 13 13 13 13 12 11 11 12 13 14 15 16 17 19 20 22 23 24 26 27 27 27 26 25
22 22 22 22 23 22 21 20 20 20 19 19 18 17 16 15 14 14 13 13 13 13 13 13 12 12 11 11 12 13 14 15 16 17 18 20 21 23 24 25 26 27 27 26

GEFSCGP_500_meanwind_042.txt.gz
Wind_Speed
17 16 16 17 17 18 20 22 24 25 25 26 26 25 24 24 23 24 24 25 25 26 27 28 28 28 28 29 30 30 31 32 32 33 34 35 37 38 38 38 37 38 38 39
14 14 14 15 16 17 18 20 22 24 24 25 24 22 21 19 19 20 21 22 23 24 25 25 26 26 27 27 27 26 26 27 28 30 31 32 34 35 35 36 37 38 38 38
11 10 11 12 13 15 16 19 21 22 23 23 21 19 16 15 16 17 18 20 21 22 23 23 24 24 23 23 23 22 23 23 24 25 26 27 29 31 32 33 33 34 36 37
7 8 9 9 11 13 16 17 19 20 20 19 19 16 15 15 16 16 18 19 20 21 21 21 21 20 20 19 18 18 18 19 19 20 21 22 23 25 27 29 31 33 34 35
6 7 7 8 10 12 13 15 16 17 17 17 15 14 14 16 17 18 18 19 19 20 19 19 20 19 17 16 16 15 15 16 17 17 17 18 19 20 22 25 28 31 32 34
4 4 5 7 8 10 12 14 15 15 15 14 13 13 14 16 18 18 19 19 18 19 19 19 19 18 17 16 16 16 16 16 16 16 15 15 15 16 18 19 21 24 27 30
3 1 2 4 7 9 11 13 13 14 13 13 13 13 14 16 17 18 18 17 17 18 18 19 18 18 18 18 17 17 17 17 17 16 14 14 14 14 14 14 16 18 20 23
4 1 2 4 6 9 10 12 13 14 14 13 13 13 14 15 16 16 16 16 17 17 18 18 18 19 19 19 19 19 19 18 18 17 16 14 14 13 12 12 12 13 15 17
8 4 3 4 7 9 11 13 14 15 15 15 13 13 13 13 14 14 15 16 17 18 18 18 19 20 20 20 21 21 21 21 20 18 17 16 14 13 12 11 10 10 9 11
8 7 6 6 8 10 12 13 14 15 15 15 14 14 14 14 13 13 15 16 17 18 18 18 18 19 20 21 21 21 22 22 21 20 19 18 16 15 13 12 11 10 9 7
9 8 7 8 9 10 11 13 14 15 15 15 14 15 15 14 14 14 15 16 17 18 18 18 18 18 19 21 22 21 22 22 22 21 21 20 18 17 16 14 12 11 10 9
10 9 8 8 9 10 11 12 13 14 15 15 14 14 14 14 14 15 16 17 17 17 17 17 17 18 19 20 21 22 22 23 22 21 21 20 19 18 17 16 14 12 11 10
10 9 8 7 9 11 12 12 13 13 13 13 13 13 14 14 15 15 15 16 17 17 17 17 17 19 19 20 21 22 22 23 23 22 22 21 20 19 18 17 15 14 12 11
10 9 7 7 8 10 11 12 13 13 12 12 12 12 13 13 14 14 15 16 17 17 17 17 18 19 20 20 21 21 23 23 23 23 22 22 21 20 19 18 16 15 14 13
9 7 6 6 7 8 9 11 13 13 13 13 12 12 12 12 12 13 15 16 16 17 17 17 17 18 20 21 21 22 23 24 24 23 23 23 22 21 20 19 17 16 16 15
7 6 5 5 6 7 9 10 11 12 13 14 14 13 13 12 12 13 14 16 16 16 17 17 18 18 19 20 21 22 23 24 24 24 24 23 23 23 21 20 18 18 17 17
5 4 3 4 5 6 7 9 10 11 12 13 14 14 13 13 13 13 14 15 16 16 17 17 18 18 19 20 21 22 23 24 25 25 25 25 25 24 23 22 20 19 19 19
2 2 2 2 3 5 6 8 9 10 11 12 13 14 14 14 13 13 13 14 15 16 16 16 17 17 18 19 20 22 23 24 25 25 26 26 26 26 25 23 22 22 22 21
1 1 1 2 3 5 6 7 8 9 10 11 12 13 14 15 14 13 13 13 14 15 15 16 16 16 17 19 20 21 22 24 24 25 27 28 28 27 26 25 24 24 24 23
5 4 4 4 5 6 6 7 8 9 10 11 12 12 14 14 14 14 13 13 14 14 14 14 15 15 16 17 18 20 21 22 24 25 27 28 28 29 28 27 26 25 25 25
8 8 7 7 7 7 7 8 8 9 10 11 11 12 13 14 14 14 13 13 13 13 13 13 13 14 15 16 17 18 20 21 22 23 25 27 28 29 29 28 27 27 26 26
12 11 11 11 11 11 10 10 10 10 11 11 12 12 12 13 14 14 14 14 13 13 13 13 13 13 13 14 15 17 18 20 21 22 23 25 27 28 29 29 28 28 27 27
14 15 15 14 14 13 13 13 13 13 13 12 13 13 13 13 14 14 14 14 14 14 14 13 13 13 13 14 15 16 17 18 20 21 22 23 25 27 28 29 29 28 28 27
16 17 17 17 17 15 15 16 16 16 16 15 15 15 14 14 14 15 15 15 15 15 15 14 14 14 14 14 15 15 16 17 18 19 20 21 23 25 26 27 28 28 28 27
20 19 19 19 19 18 17 18 18 19 19 19 18 18 17 17 16 16 17 17 16 16 16 16 15 15 15 15 16 16 16 17 17 18 18 19 20 21 23 25 26 27 28 27
24 21 19 19 20 20 20 20 20 21 21 21 21 21 20 19 19 18 19 19 19 18 18 17 17 16 16 16 16 16 16 16 17 17 17 18 18 19 20 21 23 24 26 26

GEFSCGP_500_meanwind_048.txt.gz
Wind_Speed
20 19 18 17 17 18 19 20 21 21 21 21 21 21 21 21 21 22 23 23 23 23 23 23 23 23 23 22 21 21 21 22 23 24 25 26 27 29 30 32 33 35 36 37
19 17 16 16 16 17 18 19 20 20 20 20 20 19 19 19 19 20 20 20 20 20 20 21 21 20 20 19 19 18 18 18 18 19 20 22 23 25 26 28 31 33 35 37
17 15 15 14 14 15 16 17 18 18 18 18 18 16 17 17 17 17 17 17 17 18 19 19 20 19 19 19 18 18 17 17 17 17 17 18 19 20 22 24 26 29 32 34
15 13 12 12 12 13 14 15 16 17 17 16 15 14 14 14 14 14 14 15 16 17 18 19 19 19 19 19 19 18 18 17 17 16 16 15 15 16 17 19 21 23 26 29
12 11 10 9 9 10 11 13 14 14 14 13 13 12 12 12 11 12 13 14 16 16 18 19 19 19 20 20 20 19 19 18 18 17 16 15 14 14 14 15 16 18 21 24
11 8 6 5 6 8 9 11 11 12 12 12 12 12 11 10 10 12 13 15 16 17 17 18 19 20 20 21 21 21 20 19 19 18 16 15 15 14 13 13 13 15 16 19
9 6 3 3 4 6 8 9 10 11 12 11 12 11 11 10 11 13 14 15 16 17 18 18 19 20 21 22 22 22 21 20 20 18 17 16 15 14 13 13 12 12 14 15
8 5 2 0 2 5 6 8 10 11 11 11 11 11 11 11 12 13 14 15 16 17 17 17 18 19 20 22 22 22 22 21 21 20 19 18 16 15 14 13 12 12 12 13
8 5 3 2 2 4 6 8 9 10 10 11 11 11 12 12 13 14 15 16 17 17 17 17 18 19 20 21 22 22 22 22 21 20 19 19 17 16 15 14 13 12 12 12
8 5 4 2 2 3 5 6 8 8 9 10 10 11 11 12 13 14 15 16 17 17 17 17 19 20 20 21 22 22 23 23 22 21 20 19 18 17 16 15 14 13 12 12
8 6 4 3 2 3 4 5 6 8 9 9 10 11 11 12 13 14 15 16 16 16 17 18 18 19 20 21 22 23 23 23 23 23 22 21 19 18 17 16 15 14 13 13
8 6 5 3 3 4 5 6 7 7 8 9 9 10 11 12 13 14 15 15 16 16 17 17 18 19 20 21 22 23 23 24 24 24 24 23 22 20 19 17 16 15 14 14
9 7 5 3 3 4 6 7 7 8 9 9 10 10 11 12 13 14 14 15 16 16 16 17 17 18 19 20 21 23 24 24 25 25 25 25 24 23 21 19 18 17 16 16
9 7 5 3 2 3 5 7 8 9 9 10 10 11 11 12 12 13 14 15 16 16 16 17 17 18 19 20 21 22 23 24 25 26 26 26 25 25 23 22 21 19 19 18
9 6 4 2 1 3 4 6 8 9 10 10 11 12 12 12 13 13 14 15 16 16 16 16 17 18 19 19 21 22 23 24 25 26 27 27 26 26 25 24 23 22 21 21
8 6 4 2 0 2 4 5 7 8 10 11 12 12 13 13 13 14 14 15 16 16 16 16 16 17 18 19 20 21 22 24 25 26 27 28 28 27 26 26 25 24 24 23
7 5 3 2 2 2 3 5 6 8 9 10 11 12 13 13 14 14 14 15 16 16 16 16 16 17 17 18 20 21 22 23 24 25 27 28 28 28 28 27 27 26 25 26
6 5 4 4 3 3 4 5 6 8 9 10 11 12 12 13 13 14 14 15 15 15 16 16 16 16 17 18 19 20 21 22 24 25 26 27 28 29 29 29 29 28 27 27
6 6 6 6 6 5 6 7 8 9 10 10 11 12 12 13 13 14 14 14 15 15 15 16 16 17 17 17 18 19 20 21 23 24 25 26 27 29 29 30 30 30 29 29
8 8 8 9 9 9 9 10 10 11 11 12 13 13 13 13 14 14 14 14 15 15 15 16 16 17 17 18 18 19 20 21 22 23 24 25 26 28 29 30 31 31 31 31
11 11 12 12 13 12 12 12 13 13 14 15 15 15 16 15 15 15 15 16 16 16 17 17 17 18 18 19 19 20 20 21 22 23 24 24 25 27 28 29 30 31 32 32
14 14 15 15 16 15 15 15 16 17 17 18 18 18 18 18 18 18 18 18 18 18 19 19 19 20 20 20 20 20 21 22 22 23 23 24 25 26 27 28 29 30 32 32
17 17 17 18 17 17 17 18 18 19 19 20 20 20 20 21 21 21 21 21 21 21 21 21 21 21 22 22 22 22 22 22 23 23 23 24 24 25 26 27 28 29 30 31
19 19 19 19 19 18 19 19 20 21 22 22 22 22 22 22 23 23 24 24 24 24 23 23 23 23 23 23 23 23 23 23 24 24 24 24 24 24 25 26 26 27 28 29
21 21 21 21 21 20 20 22 22 23 24 24 24 23 23 23 24 24 25 25 26 26 25 25 25 25 25 25 25 25 24 24 24 24 24 24 24 24 24 25 25 26 26 27
23 22 23 22 23 23 23 24 25 25 26 26 26 26 25 25 26 26 27 27 28 28 27 27 27 27 27 27 27 27 26 26 26 26 25 25 25 24 24 24 25 25 24 24

GEFSCGP_500_meanwind_054.txt.gz
Wind_Speed
22 21 20 19 19 19 19 18 18 17 17 16 16 16 14 13 12 12 13 13 15 15 17 18 18 18 18 19 19 19 18 17 16 16 16 17 18 19 21 23 26 29 31 33
22 22 19 19 18 17 16 15 15 14 14 14 13 13 12 10 10 10 12 13 14 15 16 17 18 19 19 19 19 19 18 17 16 16 16 16 16 16 18 19 21 24 27 29
22 20 18 17 16 14 13 12 12 12 11 11 11 10 9 8 8 10 12 13 14 15 16 17 18 19 19 20 20 20 19 17 17 16 15 14 13 13 14 16 18 20 23 26
21 18 17 15 13 11 10 9 9 8 9 9 8 8 7 7 8 10 12 13 13 15 16 16 17 19 20 20 20 20 20 18 17 17 16 15 13 12 12 12 13 16 18 21
19 16 14 12 10 8 7 6 5 6 6 6 6 6 7 8 9 11 11 12 13 15 15 16 17 19 20 20 20 20 20 20 19 18 17 16 15 13 12 12 11 12 14 16
17 14 12 10 7 5 3 2 3 5 5 5 5 5 6 7 9 10 11 12 13 14 15 16 18 19 19 20 20 20 20 20 20 19 17 16 15 14 13 12 12 11 11 13
14 12 10 8 6 4 1 1 3 4 5 5 5 6 6 7 9 9 10 12 13 14 15 16 17 18 19 20 20 21 20 20 21 20 19 18 17 15 15 14 13 12 11 11
13 11 9 7 5 4 3 3 4 4 4 5 5 6 6 7 9 9 11 12 13 14 15 16 17 18 19 20 20 20 21 21 21 21 20 19 18 17 16 15 14 13 12 11
13 10 8 7 6 5 4 4 4 4 4 4 5 6 7 8 9 10 11 12 13 14 15 15 16 17 18 19 20 20 21 22 22 22 22 21 20 19 18 17 16 15 13 13
12 10 9 8 7 6 5 4 4 4 3 4 4 6 7 8 9 10 11 12 13 13 14 15 16 16 17 18 19 20 21 22 22 23 23 23 22 21 20 19 18 17 16 15
12 10 9 8 7 6 5 5 4 4 4 3 4 5 6 8 9 10 11 11 12 12 13 14 15 16 16 17 19 20 21 22 22 23 23 24 23 22 21 20 19 19 18 17
12 11 10 9 7 6 6 6 5 5 4 4 4 5 6 7 8 10 11 11 12 12 13 13 14 15 16 17 18 19 21 22 22 23 23 24 24 24 23 22 21 20 20 20
13 12 11 9 7 6 5 5 5 5 5 5 5 6 6 7 8 9 10 11 12 12 12 13 13 14 15 17 18 19 20 21 22 22 23 23 24 24 23 23 23 23 22 22
13 12 11 9 7 6 5 5 5 5 6 6 6 7 7 8 8 9 10 11 12 12 12 13 13 14 15 16 17 18 19 20 21 22 23 23 24 24 24 24 25 24 24 24
13 12 11 9 7 5 4 4 4 4 5 5 6 7 7 8 9 9 10 10 11 12 13 13 14 14 15 16 17 18 19 20 21 22 23 23 24 25 25 25 25 26 26 26
13 12 10 8 6 5 3 2 2 2 3 3 4 5 6 7 8 9 10 10 11 12 12 13 14 15 15 16 17 18 19 20 21 22 23 24 24 25 25 26 26 27 27 27
13 12 10 8 6 5 3 2 1 1 2 3 4 5 6 7 8 9 10 11 12 12 13 14 15 16 17 17 18 19 20 21 22 23 23 24 24 25 26 26 26 27 28 28
13 11 9 8 7 6 5 4 4 4 4 4 5 6 8 9 10 11 12 12 13 14 15 16 16 17 18 19 19 20 21 21 22 23 23 24 24 25 26 27 27 27 28 29
12 11 10 9 8 7 7 6 6 6 7 7 8 9 10 11 12 12 13 14 15 16 17 17 18 18 19 20 20 21 21 22 22 23 24 24 25 25 26 26 27 28 28 29
12 11 10 10 9 9 9 9 9 9 9 10 11 12 12 13 14 15 15 16 17 18 18 19 19 20 20 21 21 21 22 22 23 24 24 24 25 25 26 26 27 27 28 28
13 12 12 12 12 11 11 11 12 13 13 14 14 14 15 16 16 17 17 17 18 18 19 20 20 20 21 21 22 22 22 23 23 24 24 25 25 25 25 26 26 27 28 28
15 14 14 15 15 14 14 15 15 16 16 16 16 16 17 17 17 18 18 19 19 19 20 20 21 21 22 22 22 23 23 23 23 24 24 25 25 25 25 26 26 26 27 27
17 17 17 17 17 17 17 17 17 17 18 18 18 18 18 19 19 19 19 19 20 20 21 22 22 23 23 23 24 24 24 24 24 24 24 25 25 25 25 25 26 26 26 26
19 19 19 19 19 19 19 19 19 19 19 19 20 20 20 20 20 20 21 21 21 22 22 23 24 25 25 26 25 25 25 24 25 25 25 25 25 25 25 25 26 26 26 26
21 21 21 21 21 21 21 21 21 21 21 21 21 21 21 22 22 22 22 23 24 24 25 26 27 28 28 29 28 27 26 26 26 26 26 26 26 25 25 25 25 25 25 25
24 23 24 23 23 23 23 23 23 23 23 23 23 23 23 24 24 25 26 26 27 28 29 30 31 31 32 32 32 31 29 28 28 28 28 27 27 27 26 26 26 26 25 25

GEFSCGP_500_meanwind_060.txt.gz
Wind_Speed
21 20 18 18 17 19 17 15 15 19 23 21 20 19 18 15 13 11 11 12 13 14 16 17 18 19 20 21 21 20 20 20 19 18 17 16 15 14 14 14 14 15 17 18
21 20 18 18 20 19 15 13 14 18 20 17 16 14 13 12 10 10 10 11 13 14 16 16 18 19 20 21 21 21 21 20 20 19 17 16 15 13 12 11 11 12 13 15
19 17 17 18 19 17 15 16 16 17 17 15 12 10 8 8 8 8 10 11 12 14 16 17 18 19 20 20 21 21 21 21 20 19 18 17 15 13 12 11 10 10 11 12
21 19 18 18 17 17 17 16 13 13 12 11 9 8 6 6 7 8 9 10 12 14 15 17 17 19 20 20 21 21 21 21 21 21 19 18 16 14 13 11 11 10 10 11
23 20 18 18 18 16 15 12 11 10 8 7 6 6 7 6 7 8 9 10 12 13 15 16 17 18 19 20 21 21 22 22 22 22 21 20 18 17 15 13 12 11 10 10
19 17 18 18 15 13 12 10 8 6 5 3 4 5 7 6 7 8 9 10 11 12 14 15 16 17 18 19 20 21 22 22 23 22 22 21 20 19 17 16 15 14 12 10
17 16 16 15 14 12 11 9 5 1 6 6 5 5 5 6 7 7 8 9 10 11 12 13 15 16 17 18 19 20 21 22 22 23 23 22 21 21 19 18 17 16 14 13
11 13 13 13 13 11 10 9 8 7 3 9 8 7 4 5 5 6 7 8 9 10 11 12 14 15 16 17 19 20 20 21 22 23 23 23 22 22 21 20 19 18 17 15
12 14 11 11 12 11 11 10 9 8 10 6 7 6 2 4 5 6 7 8 8 9 10 11 13 14 15 17 18 19 20 21 22 22 23 23 23 23 22 22 21 20 19 18
12 12 10 10 11 11 10 9 8 8 9 7 7 9 4 3 5 5 6 7 8 8 9 10 12 13 15 16 17 19 20 21 22 22 23 23 24 23 23 23 22 22 21 21
13 9 9 10 11 11 11 10 9 8 7 8 8 6 4 4 4 5 6 7 7 8 9 10 12 13 14 15 17 18 19 20 21 22 22 23 23 23 23 23 23 23 23 22
16 12 8 8 9 10 10 10 9 9 9 7 6 3 3 3 3 4 5 6 7 8 9 10 11 13 14 15 16 17 18 19 20 21 22 22 22 22 23 23 23 24 23 23
17 15 11 7 9 11 10 10 9 8 7 6 5 2 2 1 2 3 4 5 7 8 9 10 11 13 14 16 17 17 18 19 20 20 21 21 22 22 22 23 23 24 24 24
16 16 16 14 13 12 11 10 9 8 7 6 4 2 1 1 2 3 4 5 7 8 10 11 12 14 15 16 17 18 18 19 20 20 21 21 21 21 22 22 23 24 24 24
17 17 17 15 12 12 11 10 9 8 7 6 4 2 1 1 2 3 5 6 8 9 10 12 13 14 16 17 18 19 19 20 20 21 21 21 21 22 22 23 23 24 24 24
17 17 16 15 13 12 11 10 9 8 7 5 4 2 2 2 3 4 6 7 8 10 11 13 14 15 17 18 19 19 20 20 20 21 21 21 22 22 22 22 23 24 24 24
17 17 17 15 14 13 12 10 9 8 7 6 5 4 4 4 5 6 7 8 10 11 12 14 15 16 17 18 19 20 20 21 21 21 21 22 22 22 22 23 23 24 24 25
18 18 17 16 15 15 12 10 9 9 8 8 7 6 6 7 7 8 9 10 11 13 14 15 16 17 18 19 20 21 21 21 22 22 22 22 22 23 23 23 23 24 24 25
18 19 18 17 16 13 12 12 11 11 10 9 9 9 9 10 10 11 11 12 13 14 15 16 17 18 19 20 21 21 22 22 23 23 23 23 23 23 23 23 24 24 24 25
18 18 18 18 16 15 14 13 13 13 12 11 11 11 12 13 12 12 13 14 14 15 16 17 18 19 20 21 22 23 24 24 25 25 25 25 25 25 25 24 24 24 25 25
19 19 18 18 18 18 15 13 15 15 14 13 14 14 14 15 14 14 15 15 16 16 17 18 19 20 21 22 23 24 25 26 26 26 26 26 26 26 26 26 26 26 25 25
20 20 19 20 21 20 16 16 17 17 16 16 16 16 17 17 16 17 17 17 17 18 19 19 20 21 22 24 25 26 27 27 28 28 28 28 28 28 27 27 27 27 26 26
22 21 21 22 22 21 19 19 20 20 19 19 18 18 19 19 19 19 19 19 19 19 20 21 22 23 24 26 27 28 29 30 30 30 30 30 29 29 29 28 28 27 27 27
24 24 24 24 23 23 22 22 22 22 22 21 21 21 21 21 21 20 20 20 20 21 22 23 25 26 27 29 30 31 32 33 33 32 32 31 31 30 30 29 29 29 29 28
28 27 26 26 26 25 24 24 24 24 23 23 23 23 23 23 23 22 22 22 22 23 24 26 28 29 31 32 33 34 35 35 35 34 33 33 32 32 31 31 31 30 30 30
30 30 29 27 28 28 26 26 26 25 25 25 25 25 25 25 24 24 24 25 25 26 27 29 30 32 34 35 36 37 37 36 36 34 33 33 33 32 32 31 31 31 31 31

GEFSCGP_500_meanwind_066.txt.gz
Wind_Speed
28 26 23 19 18 16 15 13 14 13 12 11 11 10 8 8 7 6 7 9 10 11 12 13 15 16 17 18 18 19 19 19 19 19 19 18 16 14 12 10 8 7 7 8
28 24 21 19 17 15 14 12 12 11 11 11 10 8 7 6 5 5 6 8 9 10 12 13 14 15 16 17 18 19 19 20 20 20 19 19 17 16 14 12 10 7 6 6
24 21 20 18 16 14 11 9 10 11 11 10 9 8 5 3 3 3 6 7 8 9 11 12 13 14 16 17 18 19 19 20 20 20 20 19 19 17 16 15 13 10 8 6
23 21 18 17 15 12 9 9 10 10 10 10 9 6 4 2 0 2 5 7 7 8 10 11 12 14 15 16 17 18 19 20 20 20 20 20 20 19 18 17 16 14 11 9
20 19 16 14 13 11 10 10 10 9 9 8 6 4 2 2 2 3 4 5 6 7 8 10 11 13 14 15 16 17 18 19 20 20 20 20 20 20 19 18 17 16 14 11
18 18 17 14 12 11 11 10 10 9 9 7 5 3 3 4 3 4 3 3 4 5 7 8 10 11 13 14 15 16 17 19 19 20 20 20 20 20 19 19 19 17 16 14
17 16 15 13 12 12 11 10 10 10 10 8 6 5 5 5 4 4 3 3 3 4 6 7 9 10 12 13 14 15 16 17 18 19 20 20 20 20 20 20 19 19 18 16
17 15 13 13 12 12 11 11 10 11 11 10 8 6 5 5 5 4 3 2 2 3 4 6 7 9 10 12 13 14 16 17 18 18 18 19 19 19 19 19 19 19 19 18
17 15 13 12 12 11 11 10 10 11 12 11 8 6 5 5 4 4 3 2 2 3 4 5 6 8 9 11 13 14 15 16 17 18 18 18 18 18 19 19 19 19 19 19
15 14 13 12 12 11 11 11 11 11 11 11 9 8 8 6 4 3 3 3 2 2 3 4 5 7 9 11 13 14 15 16 17 17 18 18 18 18 18 19 19 19 19 19
13 14 13 12 12 12 11 11 11 11 11 10 8 7 7 7 6 5 4 3 2 1 2 3 5 7 9 11 13 14 15 16 17 18 18 18 19 19 19 19 19 19 19 19
12 12 13 13 13 12 12 12 11 11 10 10 8 7 7 7 7 7 5 4 2 1 1 3 6 8 9 11 13 15 16 17 17 18 18 18 18 18 18 18 18 19 19 19
13 14 13 13 13 14 14 13 12 12 11 10 8 7 7 7 7 6 5 4 2 1 1 3 6 8 10 12 13 15 16 17 18 18 18 18 18 19 18 18 18 19 19 19
15 15 15 15 15 15 15 14 13 12 12 10 8 7 7 7 7 6 5 4 2 1 2 4 6 8 10 12 14 15 16 17 18 18 18 18 18 19 19 19 19 19 19 19
17 17 17 16 16 16 15 14 14 13 12 11 9 8 8 8 7 6 5 4 3 3 4 5 7 9 11 12 14 15 16 17 18 18 18 19 19 19 19 19 19 19 19 19
18 18 18 16 16 16 15 14 14 14 13 11 10 10 10 10 9 7 6 5 4 5 6 7 9 10 12 13 14 16 17 18 18 19 19 19 19 19 19 19 19 19 19 19
19 19 19 17 18 17 14 14 15 15 13 12 11 10 11 10 9 8 6 6 7 7 8 9 10 11 12 13 15 16 17 18 19 19 20 20 20 20 20 20 19 19 19 19
18 20 20 19 20 18 13 17 17 16 15 13 12 11 10 10 9 8 8 8 9 9 10 11 12 12 13 14 15 16 18 19 19 20 21 21 21 21 21 21 21 20 20 20
19 20 21 21 21 18 16 17 17 17 16 15 14 13 12 11 11 10 10 10 11 11 12 13 13 14 14 15 16 17 18 19 20 21 22 23 23 23 23 22 22 22 21 21
21 21 22 22 23 20 16 19 20 19 17 17 16 15 14 13 13 13 12 12 13 13 14 14 14 15 15 16 17 18 20 21 22 24 25 25 25 25 25 24 24 23 23 22
23 23 23 23 24 20 18 20 21 20 18 19 17 16 15 14 15 15 15 14 14 15 15 15 15 16 16 17 19 20 22 23 25 26 27 28 28 27 27 26 26 25 24 23
24 25 24 24 24 19 20 22 22 21 20 20 19 18 18 17 18 17 17 17 17 17 17 16 17 17 18 19 21 22 24 26 27 28 29 30 29 29 28 28 27 26 25 25
25 25 25 26 24 22 23 22 22 22 22 21 21 21 20 20 20 19 19 19 18 18 18 18 18 19 20 21 23 24 26 28 29 30 31 31 31 30 29 29 28 28 27 26
27 27 28 27 25 25 24 24 23 24 23 23 23 22 22 21 21 21 20 20 19 19 19 19 19 20 21 23 25 26 27 29 30 32 32 32 32 31 30 29 28 28 27 26
31 30 29 28 27 28 27 26 26 25 25 24 24 23 23 22 22 22 21 21 21 21 21 21 21 22 24 25 26 28 29 30 32 33 33 33 32 32 31 30 28 27 26 26
34 34 33 31 30 30 29 28 28 27 26 25 25 25 24 23 23 23 23 22 23 23 23 23 24 24 26 27 28 30 31 32 34 34 35 34 34 33 31 29 29 28 27 26

GEFSCGP_500_meanwind_072.txt.gz
Wind_Speed
29 26 20 17 17 17 16 14 11 10 11 11 12 13 13 12 11 9 7 5 3 0 3 5 6 8 10 12 14 15 17 18 19 19 19 19 19 19 18 17 15 12 9 8
27 22 19 19 18 16 14 12 11 12 12 12 13 13 13 12 10 8 7 5 3 2 3 4 6 7 9 11 13 15 16 18 18 19 19 19 19 19 19 19 17 14 12 9
23 19 19 18 16 14 13 12 12 13 13 13 13 12 12 11 9 8 7 6 5 3 2 3 5 7 9 11 12 14 16 17 18 19 19 19 19 19 19 19 18 16 14 12
22 20 18 17 15 14 13 13 14 14 13 13 13 12 12 10 9 8 7 7 6 4 2 2 4 6 8 10 12 13 15 17 18 18 19 19 19 19 19 19 19 17 15 13
20 19 17 16 15 15 15 14 14 14 14 12 12 12 11 9 8 8 8 7 6 5 3 2 3 5 7 9 11 13 14 16 17 18 19 19 19 19 19 19 19 18 17 15
19 18 17 16 16 15 15 15 15 15 14 12 12 11 10 9 8 8 9 8 7 5 3 1 2 4 7 8 10 12 14 15 16 17 18 18 19 19 19 19 19 18 18 17
18 18 17 16 15 14 14 15 16 15 14 12 12 11 9 9 9 9 9 8 7 6 4 1 1 4 6 8 10 12 13 15 16 16 17 18 18 18 18 18 18 18 18 17
16 17 17 16 15 15 14 15 15 16 15 13 12 11 9 10 10 9 9 9 8 6 4 2 1 3 6 8 10 12 13 14 15 16 16 17 17 17 18 18 18 18 17 17
15 16 16 16 16 15 15 15 16 16 15 14 12 10 10 11 11 11 10 9 8 7 5 3 0 3 5 7 10 11 13 14 15 15 16 16 16 17 16 17 17 17 17 17
14 14 14 14 15 15 15 15 15 16 15 14 12 11 11 12 12 12 11 10 9 7 5 3 1 2 5 7 9 11 13 14 15 15 15 15 15 16 16 16 16 16 16 16
12 14 14 14 14 15 15 15 15 16 15 14 12 10 12 12 12 12 12 11 9 8 6 4 2 2 4 7 9 11 12 13 14 14 15 15 15 15 15 15 15 15 16 15
11 13 15 15 15 16 16 16 16 16 15 14 13 9 12 12 12 13 12 11 10 8 7 5 3 3 4 7 9 10 12 13 14 14 14 15 15 15 15 15 15 15 15 15
12 13 14 15 16 16 17 16 17 17 16 15 13 9 13 13 13 14 13 12 11 9 8 6 5 4 5 7 8 10 12 13 13 14 15 15 15 15 15 15 15 15 14 14
13 14 16 16 18 19 18 18 18 18 16 14 12 11 13 15 15 15 14 13 12 10 9 7 6 5 5 7 8 10 11 12 13 14 15 15 15 15 15 15 15 15 15 15
16 17 17 17 19 20 20 19 19 18 17 15 13 12 14 15 15 15 15 14 12 11 10 9 7 7 7 8 9 10 11 12 13 14 15 15 16 16 16 15 15 15 15 15
19 20 19 19 20 21 20 18 19 18 17 16 14 13 15 15 16 16 15 14 13 12 11 10 8 8 8 9 9 10 11 12 13 14 15 16 17 17 17 17 17 17 16 16
21 21 21 20 21 22 18 17 19 18 17 16 15 14 16 15 16 16 16 15 14 13 12 11 10 9 9 9 10 10 11 12 13 14 15 17 17 18 18 19 19 19 18 18
22 23 23 22 22 21 16 18 19 19 17 17 15 16 16 17 17 17 16 15 15 14 13 12 11 11 10 10 11 11 12 13 14 15 16 17 18 19 20 20 20 20 20 19
23 23 24 24 23 20 16 18 19 19 17 17 17 17 17 18 18 17 17 17 16 15 14 14 13 12 12 12 12 12 12 13 14 15 16 18 19 20 21 21 22 21 21 21
24 24 25 24 24 21 16 19 20 19 16 18 19 18 18 19 18 19 19 18 17 17 16 15 14 13 13 13 13 13 13 14 15 16 17 18 19 21 22 22 23 23 22 22
26 26 26 26 25 21 18 21 21 20 18 20 20 20 20 20 21 21 21 20 19 18 18 17 16 15 15 15 14 14 15 15 16 16 17 19 20 21 22 23 23 23 23 23
29 29 29 28 27 23 21 22 23 23 23 23 23 22 22 22 22 22 22 22 21 20 19 18 18 17 17 17 16 16 16 16 17 17 18 19 21 22 23 24 24 24 24 24
33 33 32 31 29 27 26 26 26 26 25 25 26 25 25 24 24 24 24 23 23 22 21 21 20 19 19 19 18 18 18 18 18 19 20 21 22 23 24 25 25 25 25 24
37 37 37 35 32 31 31 30 29 29 28 28 28 28 28 27 27 27 26 25 25 24 23 23 22 22 21 21 20 20 20 20 20 20 21 22 23 24 25 25 26 26 26 25
41 41 41 40 37 36 35 34 33 32 31 31 30 30 30 30 29 29 28 28 27 26 26 25 25 24 24 23 23 22 22 22 22 22 23 23 24 25 26 26 27 27 27 27
44 45 46 45 42 43 40 38 38 36 35 35 34 33 32 32 31 31 30 30 29 28 28 27 27 27 26 25 25 25 24 24 24 24 25 25 26 27 27 28 28 28 28 28

GEFSCGP_500_meanwind_078.txt.gz
Wind_Speed
23 22 20 19 19 17 15 14 14 14 14 13 13 12 14 13 13 12 11 10 8 7 6 6 5 4 4 5 6 7 9 10 12 13 14 15 16 16 16 15 14 12 10 9
21 21 21 20 19 17 14 13 13 13 12 13 13 13 15 14 13 12 11 10 8 7 6 6 6 5 4 5 6 7 8 10 11 12 14 15 15 16 16 16 15 13 11 9
19 20 20 18 17 16 15 13 14 13 12 12 13 13 14 14 13 12 11 10 9 8 7 7 7 5 5 5 5 7 8 9 11 12 13 14 15 16 16 16 15 14 13 11
20 20 19 18 17 16 15 14 14 13 12 12 12 12 14 14 13 12 11 11 10 9 8 8 7 6 5 5 5 7 8 9 10 11 12 13 14 15 15 15 15 15 14 12
18 18 18 17 17 16 15 14 13 13 12 12 13 13 12 13 12 11 11 11 11 10 9 8 8 6 5 5 5 7 8 9 10 11 12 13 13 14 14 15 15 15 14 13
16 17 16 16 16 14 14 14 13 13 12 12 13 13 12 13 12 11 11 11 11 11 10 9 8 7 6 5 5 6 7 9 10 10 11 12 12 13 13 14 14 14 14 13
15 15 15 14 14 13 13 13 13 13 13 13 13 13 12 13 12 11 11 11 11 11 11 10 9 7 6 5 5 6 7 8 9 10 10 11 11 12 12 13 13 13 14 13
13 13 14 14 13 13 14 13 13 13 13 13 13 13 12 13 12 12 11 11 12 11 11 10 9 8 7 6 5 5 7 8 9 9 10 10 11 11 11 12 12 12 13 13
12 12 13 13 13 13 13 13 13 14 14 13 13 13 13 13 12 12 12 12 12 12 12 11 10 8 7 6 5 5 6 7 8 9 9 10 10 10 11 11 11 12 12 12
8 10 11 12 12 13 13 14 14 14 15 14 12 12 13 13 13 12 12 13 13 13 13 12 11 9 8 7 6 5 6 7 8 8 9 9 9 10 10 10 10 11 11 11
6 8 10 11 12 13 14 14 15 16 15 15 13 11 13 13 13 13 13 14 14 14 14 13 12 10 9 7 6 6 6 6 7 8 8 9 9 9 9 9 10 10 10 10
7 8 11 12 13 14 15 15 17 17 17 15 14 12 14 14 14 14 14 15 15 15 15 14 13 12 10 8 7 6 6 6 6 7 8 8 9 9 9 9 10 10 10 10
8 10 11 13 15 16 17 17 18 19 18 17 16 13 15 15 15 15 15 16 16 16 15 15 14 13 11 9 8 7 6 6 6 7 8 8 9 9 9 10 10 10 10 10
11 11 13 15 17 18 18 18 19 20 20 19 17 16 16 17 18 17 17 17 17 17 16 16 15 14 12 11 9 7 7 6 6 7 7 8 8 9 9 10 11 11 11 11
13 14 15 17 18 19 20 20 20 21 22 21 19 18 17 19 20 18 17 17 18 17 17 17 16 15 14 12 10 9 8 7 6 6 7 7 8 9 9 10 11 12 12 12
16 16 17 18 19 21 20 20 21 22 22 22 21 18 19 21 20 19 18 18 18 18 18 18 17 16 15 13 12 11 9 8 7 7 7 7 8 9 10 11 11 12 12 13
17 18 19 19 21 21 20 19 22 22 22 22 20 19 21 21 20 19 18 18 18 19 19 19 18 17 16 15 14 12 11 10 8 8 7 8 8 9 10 10 11 12 12 13
20 20 21 21 21 22 19 20 21 22 21 22 22 21 22 22 21 19 18 18 19 19 19 19 19 19 18 16 15 14 13 11 10 9 9 8 9 9 10 10 11 12 13 13
23 24 25 24 25 23 21 22 22 21 22 23 23 23 23 22 20 20 20 20 20 20 19 20 19 19 19 18 17 16 15 13 12 11 10 9 9 10 10 11 12 12 13 14
25 26 28 28 28 27 24 24 23 23 24 24 25 25 24 23 22 22 23 22 22 21 21 21 21 20 20 19 18 18 16 15 14 13 12 11 11 11 11 12 12 13 14 14
28 29 30 30 31 30 29 28 26 26 26 26 26 26 26 25 25 24 25 24 23 23 23 22 22 22 22 21 20 19 18 17 16 15 14 14 13 12 12 13 13 14 14 15
30 32 32 33 33 33 32 31 31 30 29 28 28 28 28 28 27 26 26 26 26 25 25 24 24 23 23 23 22 21 20 19 18 17 16 16 15 15 14 14 14 15 15 15
33 34 35 35 36 36 35 35 34 33 32 31 31 31 31 30 30 29 29 29 28 27 27 27 26 25 25 25 24 23 22 21 20 19 19 18 17 17 16 16 16 16 16 17
36 36 37 38 37 38 39 39 39 38 36 35 35 34 34 33 33 32 32 32 31 30 29 29 28 28 27 27 27 26 25 24 23 22 21 20 20 19 19 18 18 18 18 19
38 39 40 41 40 41 42 43 43 42 41 40 39 38 38 36 36 35 35 35 34 33 32 31 31 30 30 30 29 28 27 26 26 25 24 23 22 22 21 21 21 21 21 21
41 43 44 43 43 44 44 45 46 46 45 44 43 42 42 41 39 38 38 37 37 36 35 34 33 33 32 32 31 30 30 29 28 27 26 26 25 24 24 23 23 23 23 23

GEFSCGP_500_meanwind_084.txt.gz
Wind_Speed
19 20 19 17 15 13 12 11 10 12 11 10 12 13 13 14 13 12 12 13 12 11 10 9 9 8 8 9 10 11 12 14 15 16 17 18 18 19 19 20 20 19 18 16
16 16 15 15 16 15 10 10 12 14 11 10 11 12 13 13 12 12 12 12 12 11 10 9 9 9 8 9 10 11 12 13 15 16 17 17 18 18 19 19 19 18 17 16
15 15 16 15 13 13 12 11 12 12 9 9 10 9 11 12 12 12 12 12 12 11 10 9 9 9 9 9 10 11 12 13 14 15 16 17 17 18 18 18 18 18 17 16
14 14 15 14 14 14 13 12 10 9 8 8 8 8 10 13 13 12 12 12 12 11 11 10 9 9 9 10 10 10 11 13 14 15 16 17 17 17 17 17 17 17 16 15
12 13 14 13 12 13 12 9 8 7 7 7 7 8 10 14 15 13 12 11 11 11 11 11 10 10 9 9 9 10 11 12 13 14 15 16 16 16 16 16 16 16 16 15
9 11 12 12 11 10 9 7 6 5 5 6 7 10 9 14 16 16 14 12 11 11 11 11 11 10 10 9 9 9 10 12 13 14 15 15 15 15 15 15 15 15 15 14
5 6 7 8 8 7 7 6 5 4 5 6 7 11 11 15 15 15 14 13 12 12 11 11 11 11 10 9 9 9 10 11 12 13 14 15 15 15 14 14 14 14 14 13
2 1 4 5 6 7 6 6 6 7 8 8 8 9 14 18 16 15 14 13 13 12 12 12 12 12 11 10 10 10 10 11 12 13 14 14 14 14 13 13 13 14 13 13
3 4 5 5 6 7 7 7 8 10 9 7 6 8 16 19 17 15 14 14 13 13 13 13 12 12 11 11 10 10 10 10 11 12 13 13 13 13 13 13 13 13 12 12
5 3 5 5 7 8 8 9 10 10 10 9 8 9 14 19 19 18 16 15 14 14 14 13 13 13 12 12 11 10 10 10 11 11 12 13 13 12 12 12 12 12 12 12
3 2 4 5 6 8 9 10 11 11 10 10 12 12 19 21 20 19 18 16 15 15 15 15 14 13 13 12 12 11 10 10 10 11 11 12 12 12 12 12 12 12 12 12
3 4 4 7 9 10 12 12 13 14 13 14 16 16 20 21 20 19 19 18 17 16 16 15 15 15 14 13 13 12 11 10 10 10 10 11 11 12 12 11 12 12 12 12
3 4 6 9 11 12 13 13 14 16 17 17 18 16 19 21 21 21 20 19 18 17 17 16 16 16 15 15 14 13 12 11 11 10 10 10 11 11 11 11 11 12 12 12
6 6 8 10 13 16 17 18 19 19 19 19 18 18 19 22 24 24 23 21 20 19 18 17 17 17 16 16 15 14 13 12 11 11 10 10 10 10 11 11 11 11 12 12
9 9 10 12 14 17 19 19 21 21 21 21 20 21 22 24 25 24 23 22 21 20 19 18 18 18 17 17 17 15 15 14 13 12 11 10 10 10 10 11 11 11 12 12
12 12 13 13 15 17 18 18 19 21 22 22 22 22 23 25 24 24 23 22 22 21 20 19 19 19 19 18 18 17 16 15 14 13 13 12 11 10 10 10 11 11 11 12
15 16 16 15 16 18 18 17 19 21 22 23 24 24 24 24 24 24 23 22 22 21 21 21 20 20 20 20 20 19 18 17 16 15 14 13 12 11 11 11 10 11 11 12
18 19 20 19 19 19 17 20 22 23 24 25 25 25 24 23 23 24 24 23 21 21 21 21 21 21 21 21 21 21 20 19 19 17 16 15 14 13 12 12 11 11 11 12
19 21 22 23 23 23 21 23 23 24 26 27 27 26 25 23 24 26 25 24 23 23 22 22 22 22 23 23 23 23 22 21 20 19 18 17 16 15 14 13 13 12 12 12
24 24 25 25 26 27 26 28 26 27 31 32 30 28 28 26 26 28 26 25 25 25 25 24 24 24 24 25 25 25 24 24 23 22 21 20 19 18 16 15 14 14 13 12
28 29 28 28 28 29 33 32 31 32 35 35 33 32 31 30 29 29 29 28 27 28 27 27 27 27 27 27 27 27 26 26 25 24 23 22 21 20 19 18 17 16 15 14
30 31 32 32 32 34 37 36 35 36 38 38 37 36 35 34 33 32 31 31 30 30 30 29 29 29 29 29 29 29 28 28 28 27 26 25 24 23 22 21 20 19 18 17
33 34 35 34 35 38 40 40 40 40 41 41 40 39 39 38 37 36 35 34 34 33 33 32 32 32 31 31 31 31 31 31 30 29 29 28 27 26 25 24 23 22 21 20
35 38 39 39 36 38 42 44 45 44 44 44 43 42 42 41 40 39 38 37 37 36 36 35 35 34 34 34 34 34 33 33 32 32 31 31 30 29 28 27 25 24 24 23
38 40 42 43 42 42 44 47 48 48 46 46 45 45 45 45 44 43 42 41 40 39 39 38 38 37 36 36 36 36 36 35 35 34 34 33 33 32 31 30 28 27 26 26
42 44 46 46 46 48 48 49 50 51 50 49 48 48 48 48 47 47 46 45 44 43 43 42 41 40 39 39 39 38 38 38 37 37 36 35 35 34 33 32 31 30 29 28

GEFSCGP_500_meanwind_090.txt.gz
Wind_Speed
19 18 17 18 17 16 13 10 7 6 6 3 3 3 4 5 5 5 5 6 7 7 6 7 7 7 6 7 8 8 9 9 11 12 14 15 16 16 17 18 19 19 19 18
18 18 18 17 16 15 12 8 7 6 3 3 2 3 3 3 4 5 5 5 5 5 6 6 7 7 6 6 7 8 9 10 11 12 13 15 16 16 17 17 18 19 19 18
18 18 17 15 14 12 11 7 5 3 3 2 2 2 1 1 2 4 5 5 5 5 5 6 7 7 7 7 7 8 9 10 11 12 13 14 15 16 16 17 17 18 18 18
18 18 17 15 13 11 9 6 5 4 3 3 2 2 1 2 3 4 6 6 6 5 6 7 7 7 7 7 8 8 9 9 10 11 13 14 14 15 15 16 16 17 17 17
17 15 13 12 11 9 7 5 4 2 2 1 1 1 2 3 4 6 7 8 7 6 6 7 7 7 7 8 8 8 9 9 10 11 12 14 14 14 15 15 16 16 17 16
16 14 12 10 8 7 6 4 3 1 1 2 2 2 2 4 6 7 8 9 8 7 7 7 7 7 8 8 8 8 9 9 9 10 12 13 13 13 14 14 15 15 16 15
15 14 12 10 8 6 5 4 2 1 1 1 2 3 3 5 6 8 10 10 9 9 8 8 8 8 8 9 8 8 9 9 9 10 11 11 12 13 13 13 14 14 15 14
14 13 11 9 7 5 4 3 2 2 2 2 2 3 4 6 8 10 10 10 9 9 9 9 9 9 9 10 9 9 9 9 8 9 10 10 11 12 12 13 13 13 14 14
12 11 9 8 6 5 3 2 1 1 2 3 4 5 6 8 10 11 11 11 10 10 10 10 10 10 10 10 10 10 10 9 9 9 9 9 10 11 12 12 12 12 12 13
8 7 6 6 4 3 1 1 1 2 3 4 6 7 9 12 13 13 13 12 11 11 10 11 11 11 11 11 11 11 10 10 9 9 9 9 9 10 11 11 11 11 11 11
6 5 4 3 2 1 0 2 3 4 5 6 7 8 12 14 15 15 14 14 12 12 12 12 12 12 12 12 12 12 11 11 10 9 9 8 9 9 9 9 10 10 10 10
4 3 2 0 1 2 3 4 5 6 7 8 9 9 14 16 16 16 15 15 14 14 14 14 13 13 13 13 13 13 12 12 11 10 10 9 9 8 8 8 8 9 9 9
4 3 2 2 3 4 6 7 7 8 8 10 11 11 15 16 17 17 16 16 15 15 15 14 14 14 14 14 14 14 14 13 13 12 11 10 9 8 8 7 7 8 8 8
5 5 5 5 5 6 7 8 9 9 10 11 12 12 14 16 17 17 17 17 16 16 16 16 15 15 16 16 16 15 15 15 14 14 13 12 11 9 8 7 7 7 7 7
7 7 7 7 7 8 8 9 10 11 11 12 12 13 14 15 16 16 17 17 17 17 17 17 17 17 17 17 17 17 17 17 16 16 15 14 13 11 10 9 8 7 7 7
8 8 8 8 9 9 10 11 12 12 12 13 13 14 15 16 17 17 18 18 18 18 18 18 19 18 18 18 19 19 18 18 18 18 17 17 15 14 12 11 10 9 8 7
10 9 9 9 11 11 12 13 14 15 15 15 15 15 16 17 17 18 18 19 19 19 19 19 20 20 20 20 20 20 20 20 20 20 20 19 18 17 15 14 12 11 10 9
12 12 12 12 13 13 15 16 17 17 17 16 16 17 18 19 20 20 20 21 21 21 20 20 21 22 22 22 22 22 22 22 22 22 22 22 21 20 18 16 15 14 13 11
15 15 15 15 16 16 17 18 20 20 19 18 18 19 20 21 22 22 23 24 23 23 23 23 23 24 24 24 24 24 24 23 23 24 24 24 24 23 21 20 18 17 16 14
18 19 19 20 21 20 20 21 22 24 23 21 21 22 23 24 25 26 26 26 27 27 26 26 26 27 27 27 26 26 26 26 25 26 26 26 26 25 24 23 22 20 19 17
21 22 23 24 25 25 25 24 25 27 26 26 26 26 27 27 28 29 29 29 29 29 29 29 29 29 30 30 30 29 28 28 28 29 28 28 28 28 27 26 25 24 22 21
24 25 26 27 28 28 29 29 29 29 30 29 29 30 31 31 32 33 33 33 33 33 33 32 32 32 32 33 33 32 32 31 31 31 31 30 30 30 30 29 28 27 26 24
26 27 29 30 31 32 32 33 33 33 34 34 34 34 35 36 36 37 37 37 37 37 37 37 36 35 36 36 36 36 35 35 35 34 33 33 33 33 32 32 31 30 29 28
29 31 32 34 35 36 36 37 37 38 38 39 39 39 40 41 41 41 41 41 41 41 41 41 41 40 39 39 40 40 39 39 38 37 36 36 35 35 35 34 34 33 32 30
32 34 35 37 38 39 40 40 41 42 43 44 44 45 45 46 47 47 46 45 45 45 45 45 45 44 43 43 43 43 43 42 41 40 39 39 38 37 37 37 36 35 34 33
35 38 39 39 40 42 42 43 45 46 47 48 49 50 50 51 51 51 51 51 50 49 48 48 47 47 47 47 46 46 47 46 45 44 43 42 41 40 40 39 39 38 37 36

GEFSCGP_500_meanwind_096.txt.gz
Wind_Speed
21 22 21 20 18 16 15 14 12 11 10 8 8 7 6 6 6 7 8 9 9 10 10 9 9 9 9 9 10 9 8 9 9 9 11 12 14 15 16 16 16 17 18 18
22 22 21 19 17 16 15 14 11 10 9 8 7 6 4 4 5 7 8 9 9 10 10 10 9 9 8 9 10 10 9 9 9 10 11 12 14 14 15 16 16 17 17 17
21 21 21 19 17 16 15 13 11 10 8 7 6 5 4 4 5 6 7 8 9 9 9 9 8 8 8 9 10 10 9 9 9 10 11 12 13 14 15 16 16 17 17 16
22 21 21 19 16 15 13 12 10 9 8 7 6 5 4 4 5 6 7 8 8 9 9 8 8 8 8 9 9 10 9 9 9 10 11 12 13 13 14 15 16 16 16 16
22 22 20 19 17 14 12 10 9 9 8 7 6 5 4 4 5 6 7 7 7 8 8 7 8 8 8 9 9 10 9 9 9 10 11 12 12 13 14 15 15 16 16 15
20 20 19 17 15 13 11 9 9 9 8 6 6 4 4 4 5 5 5 6 7 7 7 7 8 8 9 9 9 10 10 10 10 10 11 11 12 13 14 15 15 15 15 15
17 17 16 15 13 12 10 9 8 8 7 5 5 4 4 4 4 5 6 6 7 7 8 8 8 8 9 9 10 11 11 11 10 11 11 11 12 12 13 14 15 15 14 14
14 14 14 13 12 11 9 7 6 6 5 3 3 3 4 5 6 6 7 8 8 8 8 9 9 9 10 10 11 12 12 11 11 11 11 11 11 12 12 13 14 14 13 13
12 12 11 10 9 8 7 5 4 4 3 2 3 4 5 6 7 7 9 9 9 9 9 10 10 10 11 12 12 12 12 12 11 11 11 11 12 12 12 13 13 12 12 12
11 10 9 8 7 6 5 3 2 2 2 3 4 5 6 7 8 9 9 10 10 10 10 11 11 12 12 12 13 13 12 12 12 12 12 12 12 12 12 12 12 12 11 11
9 8 7 6 5 4 3 2 1 2 2 4 5 5 7 8 8 9 10 11 11 12 12 12 12 13 13 13 13 14 13 13 13 13 12 12 12 12 12 12 12 11 11 10
8 7 6 5 4 3 2 1 1 2 2 3 5 5 7 8 8 9 10 11 12 12 12 13 13 14 14 14 15 15 14 14 14 14 14 13 13 13 13 13 12 12 11 11
7 6 5 4 3 2 0 1 2 3 3 4 5 6 7 8 9 9 11 12 13 13 14 13 14 15 16 16 16 16 16 16 16 15 15 15 15 14 14 14 13 13 12 11
6 5 4 3 2 2 2 2 3 3 4 4 5 6 8 9 10 11 11 13 14 14 15 15 15 16 16 17 17 17 17 17 17 17 17 17 16 16 16 15 15 14 13 12
5 4 4 3 2 2 2 2 3 4 4 5 6 7 8 9 10 11 12 14 15 16 16 17 17 18 18 18 18 19 19 19 19 19 19 19 18 18 18 17 17 16 15 14
3 2 2 2 2 2 2 3 4 5 5 6 7 7 9 10 11 12 13 15 16 17 17 18 19 19 20 20 20 20 20 21 21 21 21 21 20 20 20 20 19 18 17 16
1 1 2 2 3 3 3 5 5 6 7 8 8 9 10 11 12 14 15 16 17 17 18 19 20 21 21 22 22 22 22 22 23 23 23 23 22 22 22 22 21 21 20 19
4 4 4 5 6 5 6 6 7 8 9 9 10 11 13 14 15 16 17 18 19 20 20 21 22 23 23 24 24 24 24 25 25 25 25 25 24 24 24 24 24 23 23 22
6 7 7 7 8 7 8 9 10 10 11 12 13 14 16 17 19 20 21 22 22 23 24 24 25 25 26 26 27 27 27 28 28 28 27 27 27 26 26 26 26 26 25 25
10 10 10 11 11 10 11 12 12 13 13 16 16 18 19 20 21 22 24 25 26 27 27 28 28 29 29 30 30 30 30 30 31 31 31 30 30 29 29 29 29 29 28 27
13 14 14 14 14 14 15 15 16 16 17 18 20 21 22 24 25 26 27 28 29 31 32 33 33 33 34 34 34 34 34 34 34 34 34 34 33 33 32 32 32 31 31 30
16 17 17 18 18 17 19 19 20 20 21 22 23 24 26 27 29 30 31 32 33 34 36 37 38 38 38 38 38 38 38 38 37 37 37 37 36 36 36 35 35 34 34 33
20 21 21 21 21 22 22 23 23 24 25 26 27 28 30 31 32 34 35 36 38 39 40 41 42 42 42 43 43 42 42 42 41 41 40 40 40 40 39 39 38 38 37 36
24 25 25 25 25 26 26 27 27 28 29 30 31 33 34 35 37 38 39 41 43 44 45 46 46 47 47 47 48 47 46 45 45 46 45 44 44 44 43 43 43 42 41 40
28 28 28 28 29 29 29 30 31 32 33 34 35 37 38 39 41 42 44 46 47 48 49 50 50 51 51 51 52 52 52 51 50 49 49 49 48 47 47 47 46 46 45 44
31 32 32 32 32 33 32 34 35 36 37 38 40 41 42 44 45 47 48 50 51 52 53 54 54 55 55 55 55 56 56 55 54 53 52 52 51 51 50 50 50 50 49 48

GEFSCGP_500_meanwind_102.txt.gz
Wind_Speed
24 25 25 25 24 23 22 20 18 15 13 10 9 8 7 6 5 4 4 5 5 6 7 9 9 9 10 10 11 11 12 13 13 13 13 13 14 14 14 15 17 17 17 18
25 26 26 25 24 23 21 18 16 14 12 10 9 8 6 5 3 3 4 5 6 6 7 8 9 9 9 10 11 12 12 13 13 13 13 13 14 14 14 15 16 17 17 17
25 26 26 24 23 21 18 17 15 13 11 10 9 7 5 3 3 3 4 5 6 7 8 8 8 9 9 10 11 11 12 12 12 13 13 13 13 14 14 15 16 17 17 17
25 24 24 23 21 19 17 17 15 14 12 11 9 7 5 3 2 3 4 5 7 8 8 8 8 8 9 10 11 11 12 13 13 13 13 13 13 14 14 15 16 16 17 17
25 24 23 21 20 19 18 16 15 13 12 10 9 7 5 3 2 3 4 5 6 7 8 8 8 8 9 10 11 12 12 12 13 13 13 13 13 13 14 15 16 16 16 17
22 21 21 20 18 17 17 15 14 12 11 10 9 7 5 3 2 3 4 5 6 7 7 8 8 9 9 10 11 12 12 12 13 13 13 13 13 13 14 14 15 16 16 16
20 18 18 18 17 15 15 14 14 12 12 10 8 6 5 3 3 3 5 6 7 8 8 8 9 9 10 11 12 12 12 12 13 13 13 13 13 13 14 14 15 15 16 15
17 16 16 15 14 14 13 14 13 12 11 9 7 6 4 4 3 4 5 6 7 7 8 8 9 9 10 11 11 12 12 13 13 13 13 14 14 14 14 15 15 15 15 15
16 14 14 13 12 12 12 11 11 11 10 8 7 5 5 4 4 5 5 6 6 6 7 8 8 9 10 11 11 12 12 13 13 13 14 14 14 14 15 15 15 15 15 15
15 13 13 12 12 11 11 11 11 11 10 8 7 6 4 4 4 5 5 5 6 6 7 8 8 9 10 11 11 12 13 13 13 13 14 14 14 14 15 15 15 15 15 15
14 13 13 12 12 11 11 10 10 9 9 8 7 6 5 4 4 4 4 5 6 6 7 7 8 9 10 11 11 12 13 14 14 14 14 15 15 15 16 16 16 16 16 16
13 13 12 11 11 10 10 9 9 9 8 8 7 6 5 4 4 4 5 5 6 7 7 8 9 10 11 11 12 13 13 14 14 15 15 15 15 16 16 16 16 16 17 16
12 12 11 10 10 10 9 9 9 8 8 7 7 6 5 5 5 5 5 5 6 7 7 8 8 9 11 12 13 13 14 15 15 16 16 16 16 17 17 17 17 17 17 17
12 12 11 10 10 10 9 9 8 8 7 7 6 6 5 5 5 5 5 6 6 7 7 8 9 10 11 12 13 14 15 15 16 17 17 17 17 18 18 19 19 19 18 18
11 11 10 10 9 9 9 9 9 8 8 7 6 6 5 5 5 5 6 6 7 8 9 10 11 11 12 13 14 15 16 17 18 18 19 19 19 19 19 20 20 20 20 20
10 9 9 9 9 9 8 8 8 8 7 7 6 6 5 5 5 6 7 8 9 10 11 12 12 13 14 15 16 17 18 19 20 20 21 21 21 22 22 21 22 22 22 21
9 9 9 8 8 8 8 8 8 8 8 7 7 7 7 7 7 8 9 9 10 12 13 14 15 16 17 18 19 20 20 21 22 23 23 24 24 24 25 24 24 24 24 24
10 10 9 9 9 9 8 9 8 8 8 9 9 8 8 9 9 10 11 12 13 14 14 16 17 18 19 20 21 22 23 24 25 26 26 27 27 27 28 28 28 27 27 26
11 11 10 10 10 9 10 10 10 10 10 10 10 10 11 11 11 12 13 14 15 16 17 18 19 20 22 23 24 25 26 27 28 29 29 30 30 31 31 31 31 30 30 30
12 12 12 12 12 12 12 12 12 12 12 12 12 13 13 13 14 15 16 17 18 19 20 21 22 23 24 26 27 28 30 31 32 32 33 33 34 34 34 34 34 34 33 33
15 15 14 14 14 14 14 14 14 15 14 15 15 15 15 16 17 18 19 20 21 22 23 24 25 27 28 30 31 32 33 34 35 36 37 37 38 38 38 38 38 38 37 37
19 18 18 17 17 17 18 17 17 18 18 18 18 18 19 20 20 21 22 24 25 26 27 28 30 31 32 34 35 36 37 38 39 40 41 41 42 42 43 43 42 42 41 41
22 22 21 21 21 21 21 21 21 21 21 21 21 22 23 23 24 25 26 27 28 30 31 32 34 35 36 37 38 40 41 42 43 44 45 46 46 47 47 47 47 47 46 45
26 25 25 24 24 24 24 24 24 24 24 24 25 25 26 27 28 29 29 31 32 33 34 36 37 38 40 41 42 44 45 46 47 48 49 49 50 50 50 50 50 50 49 49
30 29 29 29 28 28 28 28 28 28 28 28 28 29 30 30 31 32 33 34 35 36 38 39 40 42 43 44 46 47 49 50 51 52 53 53 52 52 53 53 53 52 51 51
33 33 33 33 32 32 32 32 32 32 31 31 32 32 33 33 34 34 35 36 38 39 40 41 43 44 46 47 49 50 52 53 54 54 54 55 55 55 55 55 54 53 54 53

GEFSCGP_500_meanwind_108.txt.gz
Wind_Speed
21 22 24 23 23 22 19 18 16 14 12 11 10 8 6 6 5 4 4 4 4 4 4 6 6 7 7 8 9 10 11 12 12 13 14 14 15 15 16 16 17 17 18 19
20 21 23 23 23 22 20 18 15 14 12 10 9 7 6 5 4 3 3 3 3 3 4 6 7 6 7 8 8 9 11 12 12 13 13 14 15 15 16 16 17 17 18 18
19 21 23 24 24 22 20 19 17 14 12 11 9 7 5 4 4 3 2 2 3 3 4 5 6 7 8 8 9 9 11 11 12 13 13 14 14 15 16 16 17 17 18 18
18 20 23 23 23 21 19 19 17 14 12 9 7 6 4 4 3 2 2 2 2 3 4 5 5 6 7 8 8 9 10 11 12 12 13 14 14 15 16 16 16 17 17 18
19 22 22 22 22 20 19 18 16 14 12 8 6 5 5 5 3 2 2 2 3 3 3 4 5 6 7 8 8 9 10 11 11 12 13 13 14 15 16 16 16 16 17 17
20 21 21 21 20 18 18 18 16 16 14 12 8 7 5 4 3 3 3 3 3 3 3 4 4 5 6 7 8 9 10 11 11 12 12 13 14 15 15 16 17 17 17 17
19 19 19 20 20 19 19 19 17 15 13 12 10 8 7 6 6 5 4 3 3 3 3 3 3 4 5 7 8 9 10 11 12 12 13 13 14 14 15 16 17 17 17 17
16 17 18 19 20 20 20 18 16 14 12 11 9 10 7 7 7 7 5 4 3 3 3 3 4 5 6 7 8 9 10 11 11 12 13 14 14 14 15 16 17 18 18 18
13 14 16 17 19 21 19 16 15 13 10 9 10 11 8 8 9 8 5 4 3 3 3 3 4 5 6 7 8 9 10 11 12 12 13 14 14 14 15 16 17 18 18 18
13 12 14 16 17 17 16 14 11 13 12 10 9 11 9 9 9 7 5 4 3 3 2 3 4 5 6 7 7 9 10 11 11 12 13 14 15 15 16 16 17 17 18 18
13 11 11 13 15 15 14 13 12 12 10 9 10 12 9 7 8 7 5 4 4 3 3 3 4 5 5 7 8 9 10 11 11 12 13 14 15 15 16 17 18 18 18 18
12 10 8 10 11 13 14 15 14 13 13 13 12 11 10 9 8 7 5 5 4 4 4 4 4 5 6 7 8 9 10 11 12 13 14 14 15 15 16 17 18 19 19 19
13 12 10 8 9 11 12 14 15 15 14 13 13 12 11 11 9 7 6 6 5 5 5 5 5 5 6 7 8 10 11 12 13 14 14 15 15 16 17 18 19 20 20 21
13 12 11 10 10 12 13 13 14 14 13 12 15 14 12 11 10 8 7 6 6 5 5 5 6 6 7 8 9 10 11 12 13 14 15 16 17 17 18 19 20 21 21 22
14 13 11 11 12 11 12 13 13 14 13 13 14 13 11 10 9 8 7 7 6 6 6 6 6 7 7 9 10 11 12 13 14 15 16 17 18 19 20 21 22 22 22 23
14 14 13 12 12 12 12 13 13 14 15 14 14 12 10 9 9 8 8 8 7 7 7 8 8 8 9 10 11 12 13 15 16 17 18 19 20 21 22 23 23 24 24 24
14 14 14 12 12 12 12 13 13 14 14 14 14 12 11 10 10 10 9 9 9 9 9 10 10 11 11 12 13 14 15 16 18 19 20 21 21 22 23 24 25 26 26 27
15 15 14 13 13 12 12 13 13 13 13 14 14 12 12 12 12 12 11 11 11 11 11 12 12 13 14 15 16 17 18 19 20 21 22 23 23 24 25 27 28 29 29 30
15 15 15 14 14 13 13 12 13 14 13 14 13 13 13 13 13 13 13 13 13 13 14 14 15 16 17 18 19 20 21 22 23 24 24 25 26 27 29 30 31 32 32 32
17 17 16 16 15 15 14 13 14 15 14 14 14 14 14 15 15 14 15 15 15 16 16 17 18 19 20 21 22 23 24 24 25 26 27 28 29 30 32 33 34 34 35 35
19 19 18 18 18 19 16 15 17 17 15 15 16 17 17 17 16 16 17 17 18 19 20 20 21 22 23 24 25 26 26 27 28 29 30 31 32 33 34 36 37 38 38 39
21 21 20 21 21 21 18 19 19 19 18 18 19 19 19 19 19 20 21 21 21 22 23 24 25 26 26 27 28 29 29 30 31 32 33 34 35 36 38 40 40 41 42 43
24 24 24 24 24 23 22 22 22 22 22 22 22 22 22 22 23 23 24 24 25 26 27 28 29 29 29 30 31 32 33 34 34 35 36 37 38 40 41 43 44 45 45 45
28 28 27 27 27 26 26 26 26 26 26 25 26 26 26 26 27 27 28 28 29 30 31 31 32 33 33 33 34 35 36 37 38 38 39 40 41 42 44 45 46 47 47 46
32 30 30 30 30 30 30 30 29 29 30 29 29 30 30 30 30 31 31 32 32 33 34 35 36 36 37 37 37 38 39 39 40 41 42 43 44 45 46 47 48 49 49 49
34 34 34 34 35 35 34 33 33 33 33 33 33 33 34 34 34 34 35 36 36 37 38 38 39 39 40 40 41 41 41 42 43 44 45 46 47 48 49 50 51 52 52 53

GEFSCGP_500_meanwind_114.txt.gz
Wind_Speed
21 22 22 22 23 24 25 23 23 22 20 17 15 13 11 10 9 8 7 6 4 4 3 2 1 0 1 2 3 4 5 6 6 7 8 9 9 10 11 11 11 11 12 12
20 21 22 23 24 24 25 24 24 22 20 18 15 14 13 11 10 9 8 6 5 4 3 2 1 1 1 2 3 4 5 5 6 7 8 8 9 10 11 11 12 12 12 13
19 22 23 23 23 24 25 25 24 22 20 18 16 14 12 11 10 8 7 6 5 4 3 2 1 1 2 2 3 4 5 5 6 7 7 8 9 10 11 12 12 13 13 13
21 24 24 24 24 25 25 24 23 21 19 17 16 14 13 12 9 7 6 6 5 4 3 2 1 1 2 3 3 4 4 5 6 6 7 8 9 10 11 12 13 13 13 13
20 22 23 23 24 24 24 23 22 20 19 17 16 14 13 10 8 7 6 5 5 4 3 2 2 2 2 3 3 3 4 5 6 7 7 8 9 10 11 12 13 14 14 14
20 21 22 22 24 24 24 23 21 20 18 17 16 14 11 9 8 7 6 5 5 4 3 3 2 2 2 2 2 3 4 5 6 7 8 8 9 10 11 12 13 13 14 14
19 21 21 22 23 24 24 23 22 21 19 17 16 14 11 8 7 7 6 6 5 4 4 4 3 3 2 2 2 3 4 5 6 7 8 8 9 10 11 12 12 13 14 14
18 19 20 21 22 23 23 21 20 19 18 16 15 13 11 9 7 7 6 6 5 4 4 4 4 3 2 2 2 3 3 4 5 6 7 8 9 10 11 11 12 13 14 14
19 19 20 20 20 21 21 20 18 16 16 15 14 12 10 9 8 7 6 6 5 5 4 4 4 3 2 1 1 2 3 4 5 6 7 8 8 10 11 12 13 13 13 14
18 19 20 20 19 19 19 18 16 16 16 15 14 12 9 8 7 7 6 5 5 5 5 4 4 3 2 1 1 2 3 4 5 6 6 7 8 9 10 11 12 13 14 14
16 18 20 19 18 17 18 17 16 15 13 14 14 11 9 8 7 6 6 6 6 6 5 5 4 3 3 1 0 1 3 4 4 5 6 7 8 9 10 11 12 13 14 14
15 16 18 18 19 18 17 17 16 15 13 13 12 10 9 8 7 6 6 6 6 6 6 5 5 4 3 2 1 1 2 3 4 5 6 7 8 9 10 10 12 13 14 14
14 14 16 18 18 18 17 15 16 15 14 13 12 10 9 8 8 7 7 7 7 7 6 6 5 4 3 2 2 2 3 4 4 5 6 7 8 9 10 11 12 13 14 15
12 13 14 14 15 16 15 14 15 15 15 13 11 9 9 8 8 8 8 8 7 7 7 7 6 5 4 4 3 3 4 4 5 6 7 8 9 10 11 12 13 14 15 15
12 12 12 13 14 14 13 13 14 14 14 13 11 9 7 8 8 8 8 8 8 8 7 7 7 6 5 5 4 5 5 6 6 7 9 10 11 11 12 13 14 15 16 17
12 12 11 11 11 13 13 13 13 13 13 12 11 9 9 8 8 9 9 9 8 8 8 7 7 7 6 6 6 6 7 8 9 10 11 11 12 13 14 15 16 16 17 18
13 12 12 11 11 12 12 13 14 13 12 11 10 10 10 9 9 9 10 10 9 9 8 8 8 8 8 8 9 9 10 11 12 12 13 14 15 16 16 17 18 19 20 20
14 14 14 13 13 12 11 13 14 14 13 12 11 11 10 11 11 11 10 10 10 10 9 10 10 10 10 11 11 12 13 14 15 15 16 17 18 19 19 20 20 21 22 23
17 16 16 16 15 13 13 13 13 13 13 13 12 12 12 12 12 11 11 11 11 11 11 11 12 12 12 13 14 14 15 16 17 18 19 20 21 21 22 23 23 24 25 26
18 18 18 17 17 15 13 14 14 14 13 13 12 13 13 13 13 13 13 13 13 13 13 13 14 14 15 16 16 17 18 19 20 21 22 22 23 24 25 26 26 27 28 29
19 19 19 18 18 15 15 15 15 15 13 14 14 14 14 14 14 14 14 14 15 15 15 16 16 16 17 18 19 20 21 22 23 23 24 25 26 27 28 29 30 30 31 32
21 20 20 20 19 16 17 17 16 15 16 15 15 15 16 16 16 16 16 16 17 17 18 18 19 19 20 21 22 23 24 25 26 27 28 29 30 30 31 32 33 33 34 35
23 22 22 22 19 18 18 18 18 18 17 17 17 17 17 18 18 18 19 19 19 20 21 21 22 23 23 25 26 26 27 28 29 30 31 32 33 34 34 35 35 36 37 38
25 24 24 23 22 21 20 20 20 20 20 20 19 19 20 20 21 21 22 22 23 23 24 25 26 26 27 28 29 30 31 32 33 34 34 35 36 37 37 38 38 39 40 41
27 26 26 25 24 24 23 23 23 22 22 22 22 22 22 23 24 24 25 25 26 27 28 28 29 30 31 32 33 34 35 36 36 37 38 38 39 39 40 40 41 41 42 43
29 29 29 28 27 27 27 27 26 26 26 26 26 26 26 27 27 28 28 29 30 31 31 32 33 34 35 36 37 37 38 39 39 40 40 40 41 41 42 42 43 44 45 45

GEFSCGP_500_meanwind_120.txt.gz
Wind_Speed
17 19 20 21 23 24 24 25 25 24 24 23 21 19 17 15 13 12 12 12 10 9 8 7 5 4 3 2 2 2 3 4 5 6 7 8 9 11 12 12 13 13 13 13
17 18 20 22 22 24 24 24 25 24 24 23 21 20 18 16 15 14 13 12 11 9 8 7 5 4 3 1 1 2 3 4 5 6 7 8 9 11 12 12 13 13 14 14
17 18 20 21 23 22 22 22 23 23 23 23 21 20 19 17 16 15 14 13 11 9 8 6 6 4 3 1 0 2 3 4 6 6 7 8 10 11 11 12 13 14 14 14
17 18 20 20 21 22 21 22 23 23 23 23 21 19 18 17 16 15 14 13 12 10 8 7 6 4 3 2 1 2 3 5 6 7 8 9 10 11 11 12 13 14 14 15
15 17 19 20 21 22 22 23 23 23 23 21 20 18 17 16 15 14 13 13 12 10 9 8 7 6 4 3 2 2 3 4 6 7 8 9 10 11 12 13 13 14 14 15
13 15 18 19 20 21 22 23 23 23 23 21 20 19 17 16 15 14 13 13 12 11 9 9 8 6 5 4 3 3 3 4 5 6 7 8 10 11 12 13 14 14 15 16
12 14 17 19 20 20 21 23 23 22 22 20 20 19 17 16 16 15 14 13 13 11 10 9 8 7 6 5 4 3 2 3 3 5 6 7 9 10 11 12 13 14 14 15
12 14 17 18 19 19 20 21 20 20 19 19 19 18 17 16 15 14 14 13 13 11 10 9 9 7 6 5 4 3 2 2 2 3 5 6 8 9 10 11 12 13 14 14
14 14 16 18 19 18 18 19 18 17 17 17 17 17 16 15 14 14 13 13 13 12 11 10 9 8 7 6 5 4 2 1 1 2 4 5 6 7 8 9 11 12 13 14
13 15 15 16 18 18 17 17 17 17 17 16 16 16 15 13 13 13 13 13 13 12 11 10 9 9 8 6 5 4 3 2 0 1 2 4 5 6 7 9 10 11 12 13
12 13 15 16 16 16 17 18 17 16 14 15 15 14 14 14 13 12 12 12 12 11 11 10 10 9 8 7 5 4 3 2 1 0 1 3 4 6 7 8 9 10 11 12
11 13 14 15 15 15 17 18 17 15 13 14 15 13 14 14 13 12 12 12 11 11 10 10 10 9 8 7 6 5 4 3 2 1 2 3 4 5 6 7 8 10 11 11
12 13 13 13 13 13 15 16 16 14 14 14 15 14 13 13 12 12 12 12 11 11 10 10 10 10 9 8 7 6 5 4 3 2 3 4 4 5 6 7 9 9 10 11
13 13 12 11 12 12 13 14 15 15 14 14 14 14 14 13 12 12 12 12 11 11 11 11 11 10 9 8 7 6 5 5 4 4 4 5 6 6 7 8 9 10 11 12
13 14 14 14 14 13 14 15 15 15 14 14 14 15 14 14 13 13 13 12 12 12 12 12 11 11 10 9 8 7 6 6 5 6 6 7 7 8 8 10 11 12 12 13
13 14 15 15 15 15 15 15 16 16 15 15 15 15 15 15 15 14 13 13 13 13 12 12 12 12 11 10 9 8 7 7 7 7 8 8 9 9 10 11 13 13 14 15
14 14 15 15 15 14 14 14 15 15 15 15 15 16 16 15 14 14 14 13 13 13 13 13 12 12 11 10 10 9 9 9 9 9 9 10 11 11 13 14 15 16 16 17
15 15 15 14 14 14 12 15 15 14 15 15 15 16 16 15 15 15 15 14 14 13 13 13 13 12 12 11 11 11 11 11 11 11 12 12 13 14 15 16 17 18 19 20
16 16 16 16 15 13 14 15 15 15 15 16 16 16 17 17 16 15 15 15 15 15 14 14 14 14 13 13 13 12 13 13 13 14 14 15 16 17 18 19 20 21 22 23
19 19 18 17 16 14 14 16 16 15 15 16 17 17 17 17 16 16 17 17 16 16 15 15 15 15 15 15 14 14 15 15 16 17 17 18 19 20 21 22 23 24 25 26
21 21 21 19 19 16 16 17 17 16 15 17 17 17 17 17 18 19 19 18 18 17 17 16 16 17 17 17 17 17 17 18 19 20 21 21 22 23 24 25 26 27 28 29
23 23 22 22 20 17 18 19 18 17 18 19 19 19 19 19 20 20 19 19 19 18 18 18 18 19 19 19 19 20 20 21 22 23 23 25 26 27 27 28 30 31 32 33
24 24 23 23 20 19 20 21 20 20 20 20 20 20 20 21 21 21 20 20 20 21 21 21 21 21 21 22 22 23 23 24 25 26 27 28 29 30 31 32 33 34 35 36
26 26 25 24 22 22 22 23 22 22 22 22 22 22 22 22 22 22 22 22 22 22 23 23 23 24 24 25 25 26 27 27 28 29 30 31 32 33 34 35 36 37 38 38
28 28 27 25 24 24 24 25 25 25 24 24 24 24 24 24 24 24 24 24 24 24 25 25 26 26 27 28 29 29 30 31 32 33 33 34 36 37 37 38 39 40 40 41
29 29 29 28 27 28 27 28 27 27 27 27 27 26 26 26 26 26 26 26 26 27 27 28 28 30 30 31 32 33 34 35 36 36 37 38 38 39 40 41 41 42 42 43

GEFSCGP_500_meanwind_126.txt.gz
Wind_Speed
15 18 21 22 24 25 25 25 25 25 24 22 22 20 18 17 16 15 14 13 11 10 9 8 6 4 3 2 2 1 1 1 2 3 5 6 7 8 10 10 11 12 12 13
13 16 20 22 23 24 25 25 25 24 24 23 22 21 19 17 17 15 14 13 12 10 9 8 7 6 4 3 2 2 2 2 3 4 5 6 7 8 10 11 11 12 12 13
13 15 18 20 22 24 25 25 25 24 23 22 22 21 20 18 17 15 15 14 12 12 11 10 8 7 5 4 4 3 3 3 4 4 5 6 7 8 9 11 12 13 13 14
12 15 17 19 21 23 24 25 24 23 23 23 22 21 21 20 18 16 15 15 14 13 12 10 8 7 6 6 5 4 4 4 4 5 5 6 7 8 9 11 12 13 13 14
11 13 15 17 19 21 22 23 23 23 22 23 23 22 21 20 19 17 16 15 14 14 13 11 10 9 8 7 6 5 5 4 4 4 5 6 7 8 9 10 11 12 14 15
10 12 14 16 18 19 19 20 21 22 22 23 24 23 21 20 18 17 17 16 15 14 13 12 11 10 9 8 7 6 5 5 4 4 4 5 6 7 8 10 11 12 13 14
9 11 14 16 17 18 19 19 19 20 22 22 23 23 21 19 18 18 17 16 16 14 14 12 12 11 10 9 8 8 7 5 4 4 4 4 6 6 7 9 10 11 12 13
9 11 13 14 15 17 19 18 18 18 20 20 21 22 20 18 17 17 16 15 15 14 14 13 12 12 11 10 10 8 7 6 5 3 3 4 4 5 6 7 9 10 11 13
11 12 13 14 15 17 18 18 18 17 17 17 19 19 18 17 16 15 15 14 14 14 14 14 13 12 12 11 11 9 8 7 5 4 3 3 3 4 5 6 7 9 10 11
11 13 13 14 15 15 15 17 16 16 17 17 17 17 16 15 15 14 14 14 14 14 14 14 14 13 13 12 11 10 9 8 6 5 3 2 2 2 3 4 5 7 8 9
10 12 12 13 13 14 14 15 15 14 15 16 15 15 15 14 14 14 14 14 14 14 15 15 14 14 13 13 12 11 10 9 7 6 4 3 2 1 2 3 4 5 6 7
10 11 12 12 13 14 14 13 15 15 15 14 15 15 15 15 14 14 14 15 15 15 15 15 14 14 14 14 13 12 11 9 8 7 5 4 3 1 1 2 3 3 5 6
11 11 11 11 12 13 13 14 15 16 15 15 15 15 15 15 14 14 14 14 15 15 16 16 15 15 15 14 14 13 12 10 9 8 6 5 4 3 2 2 3 3 4 6
10 12 12 11 12 12 13 14 15 15 15 15 16 16 15 15 15 14 14 14 15 15 16 16 15 15 15 15 15 14 12 11 10 9 7 6 5 4 4 4 4 4 5 6
10 12 12 13 13 13 13 14 14 14 15 16 18 18 16 16 16 15 15 15 16 16 16 16 15 15 15 15 15 14 13 12 11 10 9 7 7 6 6 6 6 6 7 7
10 11 12 13 13 13 13 14 15 15 16 16 18 19 18 18 17 16 16 16 16 16 17 17 16 16 16 16 15 15 14 12 11 10 10 9 8 8 8 8 8 8 9 9
12 12 13 13 14 13 13 14 15 16 16 17 18 19 20 19 18 17 17 17 17 17 17 17 17 16 16 16 16 15 14 13 12 11 11 10 10 10 10 10 10 10 10 11
12 12 13 14 14 14 13 14 15 16 17 18 18 19 20 19 19 18 17 17 17 18 18 17 17 17 17 17 16 16 15 14 13 12 12 11 11 11 12 12 12 12 13 13
14 14 14 14 14 13 14 15 15 16 17 18 18 20 20 20 19 18 18 18 18 18 18 18 18 18 18 18 17 16 16 15 14 13 13 13 13 13 14 14 14 15 16 16
16 16 15 15 15 14 15 16 15 16 17 18 18 18 19 19 19 18 19 19 19 19 19 19 19 19 19 19 18 17 17 16 16 15 15 15 15 15 16 16 17 17 18 19
17 17 16 16 16 15 15 16 16 16 16 17 18 18 18 17 18 20 20 20 20 20 20 20 20 20 20 20 19 19 18 18 17 17 17 17 17 17 18 18 19 20 21 22
19 19 18 17 17 16 17 17 17 17 17 18 19 19 19 20 20 21 21 20 20 20 20 20 21 21 21 21 21 20 20 19 19 19 19 19 20 20 20 21 22 22 23 25
21 20 20 19 19 18 19 19 19 18 18 19 19 20 21 22 22 22 21 21 21 21 21 22 22 22 22 22 22 22 22 22 22 22 22 22 22 23 23 24 25 26 26 28
23 22 22 21 20 21 21 21 21 21 21 21 21 21 21 22 23 23 23 23 22 22 22 23 23 23 23 23 23 24 24 24 24 24 24 25 25 26 27 27 28 29 30 31
24 24 23 23 23 24 23 23 23 23 23 23 23 23 22 22 23 23 24 24 24 24 24 24 24 24 25 25 25 26 26 26 26 27 27 28 29 29 30 31 32 33 34 35
25 25 25 25 25 25 24 24 24 24 24 25 24 24 24 24 24 24 25 25 25 25 25 25 26 26 27 27 28 28 29 29 29 30 30 31 32 33 33 34 35 36 37 37

GEFSCGP_500_meanwind_132.txt.gz
Wind_Speed
14 16 18 19 21 21 22 22 24 23 23 23 23 21 20 18 17 15 15 13 13 11 10 9 7 6 4 3 2 1 1 2 3 4 5 7 8 10 11 11 12 13 13 13
13 16 17 18 20 22 23 22 22 22 23 23 22 21 20 20 18 16 15 14 13 12 11 10 9 7 5 4 3 2 2 2 3 3 5 6 8 9 10 11 12 13 13 14
11 13 15 17 19 22 23 22 21 22 23 22 21 20 21 20 19 17 16 15 13 13 12 11 10 8 7 6 4 3 2 2 2 3 4 6 7 8 9 11 11 12 13 14
10 12 13 16 18 20 21 22 22 22 22 22 21 20 20 20 18 17 16 15 14 13 12 12 10 9 8 6 5 4 4 3 3 3 4 5 6 8 9 10 11 12 13 13
8 9 12 14 15 18 20 21 21 22 21 22 21 20 19 20 19 17 16 15 14 14 12 12 11 10 9 7 6 6 5 4 3 3 3 4 5 7 8 9 10 11 12 13
6 8 10 13 15 16 18 19 18 20 20 20 20 19 19 18 18 17 17 16 15 14 13 13 12 11 10 9 8 7 6 4 3 2 2 3 4 6 7 8 9 10 11 13
5 6 8 11 13 15 16 17 17 18 19 18 18 19 18 16 17 16 16 16 15 15 14 13 12 12 11 10 9 8 7 5 4 3 2 2 3 4 5 6 7 9 10 11
5 5 7 9 11 13 14 15 16 15 15 14 17 18 18 17 16 16 16 16 17 16 14 14 14 13 12 11 10 9 7 6 5 4 3 2 2 3 4 5 6 7 8 10
4 5 7 9 10 12 13 13 15 14 13 12 14 16 17 18 16 17 16 16 16 16 16 15 14 14 13 12 11 10 9 7 6 5 4 3 1 1 2 3 4 6 7 8
5 4 6 8 11 12 13 14 13 13 13 13 13 13 15 16 17 17 17 16 15 16 16 15 15 15 15 14 12 11 10 8 7 6 5 4 2 1 1 2 3 4 5 7
6 5 6 7 9 11 13 14 14 13 13 13 13 13 13 13 15 16 17 16 16 16 16 15 15 15 15 14 13 12 11 10 8 7 6 5 4 2 1 2 3 4 4 5
7 6 6 7 9 10 12 14 15 14 12 10 11 12 13 13 14 15 15 15 16 16 16 16 15 15 15 15 14 13 12 11 10 9 7 6 6 4 3 2 3 3 4 5
8 8 7 8 8 8 10 12 14 14 13 12 9 9 11 13 14 14 15 15 16 16 16 16 16 16 16 16 15 14 13 12 11 10 9 8 7 6 5 4 4 4 4 5
8 9 8 6 7 8 10 11 13 13 12 11 10 8 10 12 13 15 15 16 17 17 16 16 16 16 17 16 15 15 14 13 12 11 10 10 9 8 7 6 5 5 5 5
8 10 9 8 8 8 10 11 12 12 12 12 11 11 10 12 13 14 16 16 16 16 16 16 16 16 17 17 16 15 14 14 13 12 12 11 10 10 9 8 7 6 6 6
8 9 10 8 9 10 11 11 12 12 13 13 12 12 13 14 14 15 15 15 16 16 16 16 16 16 17 17 16 15 15 14 14 13 12 12 12 11 10 9 8 8 8 8
9 9 9 9 9 10 10 11 12 14 14 14 14 14 15 15 16 15 15 15 15 16 16 16 17 17 17 17 17 16 15 15 15 14 14 13 13 12 11 11 10 10 10 10
11 11 10 9 9 10 9 11 12 14 14 15 15 16 16 16 16 15 15 15 15 16 16 16 17 17 17 17 17 16 16 16 16 15 14 14 14 13 13 12 12 12 12 12
12 12 11 10 9 9 10 11 12 13 14 15 16 16 16 16 16 16 17 17 16 17 17 17 17 17 18 18 17 17 16 16 16 16 15 15 15 15 14 14 14 14 13 14
14 14 13 13 12 11 11 12 12 13 14 15 15 16 16 16 16 16 17 17 16 17 17 17 17 17 17 18 18 17 17 17 17 17 16 16 16 16 16 16 16 16 16 15
15 15 15 14 14 14 15 13 14 15 15 15 15 16 15 16 16 17 16 16 17 16 16 17 17 17 18 19 18 18 18 18 18 18 18 18 17 17 17 17 17 18 18 18
16 15 15 15 15 17 16 15 16 16 16 15 16 16 17 16 17 17 17 17 17 17 17 17 17 18 18 19 19 19 19 19 19 19 19 19 19 19 19 19 19 20 20 20
19 18 17 17 18 17 17 17 17 17 17 17 17 17 18 17 17 18 18 18 18 18 18 18 19 19 20 20 20 20 20 20 21 21 21 21 21 21 21 21 21 22 22 23
20 20 20 20 20 20 20 20 19 19 18 19 19 19 19 18 18 18 19 19 19 19 19 20 21 21 22 22 22 23 22 22 23 23 23 23 23 23 23 23 24 24 25 25
23 23 23 22 22 23 22 21 21 20 20 21 20 20 20 20 20 20 19 19 20 21 21 22 22 22 23 24 25 25 24 24 25 25 25 25 25 25 25 26 26 27 27 28
26 26 25 25 25 25 25 23 22 21 21 20 21 21 21 21 21 21 21 21 21 22 23 23 24 24 25 26 26 27 27 27 27 27 27 27 27 28 28 28 29 29 30 31

GEFSCGP_500_meanwind_138.txt.gz
Wind_Speed
11 13 15 16 17 18 17 18 19 20 21 21 20 19 19 18 17 15 14 13 13 13 12 10 9 8 7 6 5 5 3 3 3 4 5 6 7 8 9 10 11 11 12 12
10 11 13 15 17 17 18 18 19 20 21 21 21 20 20 19 19 17 15 14 12 13 12 11 10 9 8 7 6 5 4 3 4 4 5 6 7 8 9 10 11 12 12 13
8 10 11 13 15 17 17 18 18 19 20 21 21 21 21 20 19 18 17 15 14 14 12 12 11 10 9 8 7 6 5 5 4 4 5 6 7 8 9 10 11 12 12 12
7 8 10 12 14 14 16 17 17 17 19 20 20 21 21 21 20 18 17 16 15 14 13 12 12 11 10 9 8 7 6 5 5 5 5 6 6 7 8 9 10 11 12 12
5 7 8 10 12 14 14 15 16 15 16 18 18 20 20 20 19 19 18 17 16 15 13 12 12 12 11 10 9 8 7 6 6 6 6 5 5 6 7 8 9 11 11 12
4 5 7 9 11 12 13 14 15 15 14 15 16 17 18 18 17 18 18 18 17 16 14 14 13 13 12 11 10 10 8 7 7 7 6 5 5 5 6 7 8 10 11 11
4 5 6 7 9 11 12 14 15 15 15 14 15 16 15 17 18 17 18 18 17 17 16 15 14 13 13 12 11 10 9 8 8 7 6 5 4 4 5 6 7 8 9 10
3 5 5 7 8 10 11 13 14 15 15 15 16 15 14 16 17 18 19 19 18 17 16 16 15 14 14 13 13 11 10 9 9 8 7 5 4 3 3 4 5 6 8 8
3 4 5 7 9 10 10 12 14 14 14 14 15 15 15 17 17 18 20 20 18 17 16 16 15 15 14 14 14 12 11 10 10 9 8 6 5 3 3 3 4 5 7 7
3 3 5 6 8 9 9 11 13 13 13 13 13 13 15 15 15 16 18 19 18 18 17 16 16 15 15 15 14 13 12 11 10 10 8 7 5 4 3 2 2 3 5 5
4 4 5 6 7 8 9 10 11 12 13 13 13 13 14 15 15 15 16 18 18 18 18 17 17 16 15 15 15 14 13 12 11 11 9 8 6 5 3 2 1 1 2 4
5 5 6 6 7 8 10 11 11 11 11 11 13 13 14 15 16 16 16 17 19 19 18 18 18 17 16 16 16 15 15 13 12 12 10 9 8 6 4 3 2 1 0 1
5 5 5 6 7 8 10 10 11 11 11 11 12 14 15 15 15 16 16 17 18 19 19 19 19 18 17 17 17 16 16 14 13 13 11 10 9 8 6 4 3 2 2 1
6 5 5 5 6 6 8 9 10 11 10 9 10 13 14 15 15 14 15 16 17 18 18 18 19 18 18 18 17 17 16 15 14 14 12 11 11 9 8 6 5 4 3 3
7 7 7 6 7 8 8 9 9 10 10 10 9 11 13 13 14 15 15 15 16 17 17 17 17 17 17 18 17 17 16 16 15 15 14 12 11 11 9 8 6 5 4 4
9 8 8 8 7 9 9 9 9 11 10 9 10 9 11 13 13 13 13 14 15 17 18 17 17 16 16 17 18 18 17 17 16 15 14 14 13 12 11 10 8 7 7 6
10 10 10 9 9 9 8 8 10 10 11 10 10 10 10 10 11 11 11 13 13 15 17 17 16 16 16 17 18 18 18 18 17 17 16 15 14 13 13 12 10 10 9 8
11 11 11 11 11 10 9 10 11 12 12 12 11 12 11 11 11 11 11 12 13 14 15 16 17 17 17 18 18 19 19 19 18 18 17 16 15 15 14 13 12 11 11 10
13 12 11 11 11 11 11 11 11 11 12 12 12 12 12 12 12 12 12 13 13 14 15 16 17 18 18 18 18 19 19 19 19 18 18 17 16 16 15 14 14 13 13 12
15 14 13 13 12 12 11 12 12 11 11 11 12 12 12 12 12 11 12 13 14 15 15 16 17 18 18 18 19 19 19 19 19 19 18 18 17 17 16 16 15 15 15 14
18 16 15 14 13 12 11 12 12 11 10 11 11 12 12 13 12 12 13 13 14 15 16 17 17 17 18 19 19 19 20 20 20 19 18 19 18 18 17 17 17 16 16 16
19 18 17 16 15 12 11 12 12 11 12 12 12 13 13 13 13 13 14 14 15 16 16 16 17 18 19 19 19 20 20 20 20 20 19 19 19 19 18 18 18 18 18 18
20 18 17 17 15 14 14 14 13 12 12 13 13 13 14 14 14 14 14 15 16 16 17 17 18 19 19 20 20 21 21 21 20 20 20 20 20 20 20 20 20 20 20 19
21 19 19 18 17 16 15 15 14 13 13 14 14 14 15 14 13 14 15 16 16 17 18 18 18 19 20 20 20 22 22 22 22 21 21 21 22 22 21 21 21 21 21 21
22 22 20 19 19 18 18 17 16 15 15 15 16 16 16 16 16 16 16 17 18 18 19 19 19 20 20 21 22 22 23 23 23 23 23 23 23 23 23 24 24 24 24 24
25 24 22 21 20 20 19 19 18 17 16 17 17 18 18 19 19 19 19 19 19 20 20 21 21 22 22 22 23 24 24 24 24 25 25 25 25 26 26 26 26 26 26 26

GEFSCGP_500_meanwind_144.txt.gz
Wind_Speed
11 11 12 14 16 17 18 19 18 18 18 17 17 17 17 18 18 17 17 16 17 16 13 12 11 10 9 9 7 6 5 4 3 3 3 3 4 5 6 7 8 8 9 10
10 10 11 12 14 15 16 17 18 18 18 18 18 17 18 18 19 18 17 17 17 16 14 13 12 11 10 9 9 6 6 5 4 4 3 3 4 5 6 7 8 9 9 10
9 9 9 11 13 13 15 15 16 17 18 18 18 18 19 19 19 19 18 17 16 16 16 14 13 12 11 10 9 7 7 6 5 4 4 4 4 5 6 7 7 8 9 10
8 8 8 10 11 12 13 13 14 16 17 18 18 19 19 19 20 19 18 17 16 17 16 15 14 13 12 11 10 9 8 7 6 5 5 4 4 4 5 6 7 8 8 9
7 7 7 8 9 10 11 11 12 14 15 16 17 19 19 20 20 19 19 18 17 17 16 16 15 14 13 12 11 10 9 8 7 6 5 5 4 4 5 6 7 7 8 8
7 6 6 7 8 9 10 11 11 13 15 16 15 17 19 20 18 20 20 20 19 17 18 17 16 15 14 13 12 11 10 9 8 7 6 6 5 4 4 5 6 6 7 7
6 6 6 7 7 9 9 10 11 13 14 14 14 16 17 18 18 18 19 21 20 19 18 17 16 15 15 14 13 12 11 9 8 8 7 6 5 4 4 4 5 5 6 6
6 6 6 7 7 8 8 10 11 11 13 13 14 15 16 17 18 18 18 19 20 20 18 18 17 16 16 15 14 13 12 10 9 9 8 7 5 4 3 3 4 4 5 5
6 6 6 6 7 7 8 9 10 11 11 13 14 14 15 16 17 19 19 18 20 19 19 18 18 18 17 16 15 14 13 11 10 10 9 8 6 5 3 3 2 3 3 4
6 6 6 6 6 6 7 8 9 10 11 11 12 12 13 15 16 18 19 19 19 20 19 19 19 19 18 17 16 15 13 12 12 11 10 9 7 5 4 3 2 2 2 2
6 6 7 6 6 7 8 8 9 10 11 11 11 12 13 14 15 16 18 19 19 20 20 20 19 19 19 18 17 15 14 14 13 12 11 10 8 7 5 4 3 2 2 1
7 7 8 7 7 8 8 8 9 10 10 11 12 12 13 14 15 16 18 19 20 20 21 21 20 20 19 18 18 17 16 15 15 14 12 11 10 8 6 5 4 3 3 2
7 7 8 9 9 8 8 9 9 9 11 11 12 11 13 13 15 16 18 19 20 20 21 22 21 21 20 19 19 18 17 17 16 15 13 12 11 10 8 6 5 5 4 4
8 8 7 7 7 9 9 9 10 9 10 10 10 11 13 13 14 15 17 19 20 20 20 21 22 22 21 20 20 19 18 18 17 16 15 13 12 11 9 8 7 7 6 6
10 9 8 7 7 8 8 8 9 9 10 10 10 11 12 13 13 14 16 17 19 20 19 20 22 22 22 21 21 20 19 18 18 17 16 15 14 12 11 10 9 9 8 8
11 10 10 8 8 8 8 8 9 9 10 10 10 12 12 13 13 13 14 15 18 19 20 20 21 22 21 20 20 19 20 19 19 18 17 16 15 14 13 12 11 10 9 9
12 12 11 10 9 8 8 8 9 10 11 11 10 11 13 13 13 13 13 14 17 19 19 19 20 20 21 20 19 19 20 19 19 18 18 17 16 15 15 14 13 12 11 11
14 13 13 12 11 10 7 8 9 10 11 11 11 12 13 13 13 13 13 14 16 17 18 19 19 20 21 21 20 20 20 20 19 18 19 18 17 17 16 15 15 14 13 13
15 15 14 13 12 10 9 9 9 10 10 12 12 12 12 13 13 13 13 14 15 16 17 18 19 20 20 20 20 19 19 19 19 18 19 19 19 18 18 17 17 16 16 15
17 16 15 14 13 10 9 10 10 10 9 10 11 12 11 11 11 12 13 13 14 16 16 18 18 19 20 20 20 20 19 19 19 20 20 19 19 19 18 18 18 18 18 18
18 17 17 15 14 11 11 11 11 10 10 11 11 12 12 11 12 12 13 13 14 15 16 17 18 19 19 19 20 20 20 20 20 21 20 20 20 20 19 19 19 18 19 19
19 19 18 16 14 12 12 12 11 11 11 12 12 12 13 13 13 13 14 14 15 15 16 17 18 19 19 20 20 21 21 22 22 21 21 20 21 20 20 20 20 20 19 20
21 20 18 17 15 13 14 13 13 13 12 13 13 13 13 13 13 13 14 14 15 16 17 17 18 18 19 19 20 20 21 22 22 21 21 21 21 21 21 20 20 20 20 21
23 21 20 18 16 16 15 15 14 14 13 14 15 14 14 14 14 13 13 14 15 16 16 17 17 18 19 19 20 21 21 21 21 22 22 22 22 22 22 22 22 22 22 22
24 23 21 19 18 18 17 16 16 15 15 15 15 15 15 15 15 15 15 15 16 17 17 17 18 19 20 20 21 21 22 22 22 22 23 23 23 23 23 23 24 24 24 25
25 24 22 20 19 19 19 18 18 17 17 17 16 16 16 15 16 16 16 16 17 17 18 19 20 20 21 22 22 22 23 23 24 24 24 24 25 25 26 26 26 26 27 27

GEFSCGP_500_meanwind_150.txt.gz
Wind_Speed
11 11 11 12 13 13 14 15 16 17 17 17 16 17 18 19 18 18 18 18 17 16 15 15 14 12 11 10 10 8 7 5 5 4 3 2 2 2 3 4 5 6 6 7
11 11 11 11 12 12 13 14 16 16 16 17 16 17 18 19 20 19 18 18 17 16 15 15 14 13 12 11 10 10 8 7 6 5 4 3 2 3 3 4 5 6 6 7
9 9 10 10 10 11 13 14 15 15 16 16 16 17 17 18 20 20 19 18 18 17 15 15 14 13 13 12 11 10 9 8 7 6 5 4 3 3 3 4 4 5 6 7
9 9 9 9 9 9 12 13 14 14 15 16 16 17 17 18 20 21 20 18 18 18 16 15 15 14 14 13 12 10 10 9 8 7 6 5 4 3 3 3 4 5 6 7
9 8 8 9 9 8 9 10 12 13 14 15 16 17 16 19 20 20 20 19 20 19 18 17 16 16 15 14 13 12 11 10 9 8 7 6 5 4 3 3 3 4 5 6
9 8 8 8 9 9 9 9 9 11 13 14 15 16 16 17 19 20 20 20 20 20 20 18 17 17 16 15 15 13 12 12 10 10 8 7 6 5 4 3 3 4 4 5
8 8 8 8 8 9 9 9 9 10 10 11 13 15 15 15 18 20 21 21 21 21 21 20 19 18 17 16 15 14 14 13 11 11 9 9 7 6 4 4 3 3 3 4
8 8 8 7 7 7 8 9 10 11 10 10 11 13 13 16 17 19 20 21 20 20 21 20 20 19 18 17 16 15 15 14 13 12 11 10 9 7 5 4 3 3 3 4
9 9 8 8 8 8 7 8 9 10 11 10 11 11 12 15 17 19 21 20 19 19 20 21 21 20 19 18 17 16 16 15 14 14 13 11 10 8 6 5 3 3 2 3
9 9 9 9 9 8 8 8 8 9 10 10 10 11 12 14 16 18 19 20 19 19 19 20 21 21 20 19 18 17 17 16 15 15 14 12 11 9 7 6 4 4 3 2
10 9 8 9 9 9 9 8 8 9 9 9 9 11 12 13 15 17 18 19 20 20 20 19 19 20 21 20 18 17 17 16 15 15 14 13 12 10 9 7 6 5 4 3
10 10 9 8 9 9 9 9 8 8 9 9 10 11 11 12 14 16 18 19 20 20 19 19 19 19 20 20 19 18 17 17 16 16 15 14 13 11 10 9 8 7 5 4
11 10 9 9 9 9 9 9 8 9 9 10 10 10 11 12 14 15 17 18 19 20 20 19 18 19 20 20 19 19 18 17 17 16 16 15 14 12 11 10 9 8 7 6
11 10 9 9 9 9 9 9 9 9 9 9 10 11 12 12 13 15 16 18 18 18 19 19 18 19 20 20 20 19 19 18 17 17 16 16 15 14 12 11 10 9 8 7
12 11 10 10 9 8 9 9 9 9 10 10 11 12 13 13 14 14 16 18 19 18 18 18 18 18 19 20 20 20 19 18 18 18 18 17 16 15 14 12 11 11 10 9
14 12 11 10 10 9 9 9 10 10 10 11 11 11 12 13 14 14 15 16 17 18 18 18 18 17 17 19 20 20 20 20 19 19 19 18 17 16 15 13 12 12 11 10
15 13 12 12 11 10 10 10 10 11 11 11 10 11 12 13 13 14 14 15 16 17 17 17 17 17 17 18 21 21 21 20 20 19 19 19 18 17 16 15 14 14 13 12
16 15 14 13 12 11 10 10 10 10 11 11 11 11 12 12 13 13 14 14 15 16 17 17 17 18 18 18 18 20 21 20 19 19 19 18 19 18 17 16 16 15 14 14
18 16 15 14 13 11 11 11 10 10 11 11 11 11 11 11 11 12 13 14 14 15 16 17 17 18 18 18 18 19 20 20 19 18 18 18 19 19 18 18 17 16 16 15
19 18 17 16 15 12 12 12 11 11 11 10 10 10 10 11 11 12 13 13 13 14 14 15 16 17 18 18 18 19 19 19 18 19 19 18 18 18 18 17 17 17 17 16
21 19 18 16 15 13 13 12 12 12 12 12 11 10 10 10 11 12 12 13 13 13 14 15 15 16 16 16 17 18 19 19 19 19 19 18 18 18 18 18 18 18 18 18
22 21 19 17 16 15 14 12 13 13 13 13 13 12 11 11 11 11 11 12 13 13 14 14 15 15 16 17 17 18 19 19 20 20 20 19 19 19 19 19 18 18 18 18
24 22 20 18 16 16 15 15 14 14 14 14 14 13 13 12 11 11 12 13 13 14 14 14 15 15 15 16 18 19 18 19 20 20 20 20 20 20 20 20 20 20 20 20
24 24 22 20 18 18 17 17 16 15 15 14 14 14 14 13 13 12 12 12 14 14 14 14 15 16 16 17 18 18 19 20 20 20 20 20 20 20 21 21 21 20 21 21
25 25 23 21 20 20 19 18 17 16 16 16 15 15 15 14 14 13 13 13 14 14 15 16 16 16 17 17 18 19 19 19 20 20 20 20 20 20 20 20 21 21 21 22
27 25 24 22 22 22 20 19 19 17 17 16 15 15 15 14 14 14 14 14 15 15 15 16 17 17 18 18 19 20 20 20 20 21 21 22 22 22 22 22 22 23 23 24

GEFSCGP_500_meanwind_156.txt.gz
Wind_Speed
13 13 13 13 14 14 14 15 16 17 17 16 17 18 18 18 18 18 18 17 16 16 16 15 14 12 12 11 10 9 7 6 4 3 2 1 1 1 2 4 5 5 6 6
13 13 13 13 14 14 14 15 16 16 16 16 16 17 18 18 17 17 17 17 16 16 16 16 15 14 13 13 11 9 8 6 5 4 3 2 1 1 2 3 4 5 6 7
14 13 12 13 14 14 14 15 15 15 15 16 16 16 17 17 17 17 18 17 17 16 16 16 15 15 14 14 12 10 9 8 6 5 4 3 2 1 1 2 3 5 6 7
13 13 12 13 13 13 13 13 14 14 15 16 15 15 15 16 17 17 17 17 17 17 16 16 15 15 14 14 12 10 9 8 7 6 5 4 3 1 0 1 2 4 5 6
13 13 13 13 13 12 12 11 12 13 14 14 14 14 14 16 17 16 16 17 17 17 17 17 16 15 15 14 13 10 10 9 8 7 6 5 4 2 1 1 2 3 4 5
14 13 12 12 12 12 11 11 11 12 13 13 13 14 14 16 16 15 16 16 17 17 17 17 17 15 15 15 13 12 10 10 8 7 7 6 5 4 2 1 1 2 3 5
13 13 12 12 12 11 11 11 10 11 12 11 12 14 14 15 15 15 15 16 16 17 17 17 17 16 16 15 15 13 11 10 9 8 8 7 6 5 3 2 1 1 2 4
14 14 13 12 11 12 11 11 10 10 10 10 11 13 13 14 14 14 15 16 17 17 17 17 17 16 16 16 15 14 12 11 10 9 9 9 8 6 4 3 2 0 1 2
15 14 13 12 12 11 11 11 10 11 11 11 11 12 12 12 12 13 14 16 17 17 17 17 17 17 17 16 15 14 14 12 11 10 10 10 9 7 5 4 2 1 0 1
15 14 13 12 12 12 11 10 10 11 11 11 10 11 12 11 12 12 13 14 15 16 16 18 18 17 17 17 16 14 14 13 12 11 10 11 10 8 7 5 4 3 1 0
16 15 14 13 12 11 12 12 11 11 11 10 10 10 11 11 11 11 12 13 14 15 16 17 18 18 17 17 16 15 14 13 12 11 10 11 11 10 8 7 5 4 3 2
16 15 15 14 13 13 13 12 12 13 12 11 10 9 10 11 11 11 12 13 14 14 15 17 18 18 18 17 16 16 15 14 13 12 11 12 12 11 10 8 7 6 5 4
16 15 15 15 13 12 12 12 12 13 13 11 11 10 10 10 11 11 12 13 14 14 15 17 17 18 17 17 17 17 16 16 14 13 12 12 13 13 11 10 9 8 7 6
17 16 15 15 14 12 12 13 13 13 13 12 11 10 10 10 11 11 12 12 13 14 15 16 17 17 16 17 18 17 16 17 16 14 13 13 14 13 12 11 10 9 9 8
18 16 15 15 14 13 13 13 14 14 13 13 12 12 12 12 11 12 12 13 14 14 15 16 16 16 16 17 17 17 16 16 16 15 14 14 14 14 13 12 11 11 10 10
18 17 16 16 14 14 13 13 13 13 14 14 14 13 13 13 12 12 13 13 14 14 15 15 16 15 15 16 16 16 16 16 16 15 15 15 15 15 14 13 13 12 11 11
19 18 17 16 15 14 13 12 12 13 14 14 14 12 13 13 12 12 12 13 13 14 14 14 15 15 15 16 15 14 15 16 16 16 15 15 15 16 15 14 14 13 13 12
21 20 19 17 16 15 13 13 13 13 13 13 13 13 14 13 12 12 12 13 14 14 15 15 15 15 16 16 16 16 15 15 16 17 16 15 14 15 15 16 15 14 14 13
22 21 20 19 18 16 15 14 13 13 13 13 13 13 13 12 12 12 12 12 13 14 15 15 16 15 15 16 17 17 16 16 17 17 16 15 15 15 15 15 16 15 15 14
23 22 22 20 19 17 15 14 13 13 14 13 12 12 12 12 12 11 12 12 13 14 15 15 16 16 16 15 15 16 16 16 16 17 17 17 16 15 15 15 15 15 14 15
25 24 22 21 20 18 17 15 14 14 13 13 12 12 11 11 12 12 12 13 13 14 14 15 16 16 16 16 15 15 16 16 16 17 17 18 17 15 15 16 16 16 16 16
25 24 23 23 22 18 18 17 16 15 14 13 13 13 12 12 13 12 12 12 13 13 14 14 15 16 16 16 16 15 16 17 17 18 18 18 18 17 17 16 16 17 17 17
27 25 24 24 22 19 18 17 17 16 16 15 15 14 13 13 13 13 12 12 13 13 14 14 14 15 15 16 16 16 16 17 17 17 17 17 18 18 18 18 18 18 18 18
28 27 25 25 23 22 21 20 19 18 17 17 16 15 15 14 14 14 13 13 13 13 13 13 14 14 15 15 16 16 15 15 16 16 17 17 17 18 18 18 18 18 19 19
29 28 27 25 23 22 22 21 20 19 18 18 17 16 15 15 15 14 14 14 13 13 14 14 13 14 14 15 15 15 15 16 16 17 17 17 18 18 18 19 19 20 20 21
30 29 28 26 24 24 23 22 21 20 19 18 18 17 17 16 16 16 15 14 14 14 15 14 14 15 15 16 16 16 16 17 17 17 17 18 18 18 19 19 19 20 21 22

GEFSCGP_500_meanwind_162.txt.gz
Wind_Speed
14 14 14 14 14 14 14 14 14 13 13 13 13 13 13 13 13 13 12 12 12 11 11 11 11 11 10 10 10 10 9 7 6 6 5 4 2 2 2 2 2 3 3 4
15 14 14 14 14 14 14 14 14 13 12 12 12 13 13 13 12 12 12 11 12 12 11 11 11 10 10 11 12 11 10 8 7 6 5 4 3 3 2 2 3 3 3 4
15 14 14 14 13 14 13 13 13 13 12 12 12 12 12 12 12 12 12 12 13 13 13 12 12 11 11 11 13 12 11 9 8 7 6 5 4 4 3 3 2 3 3 4
15 15 14 14 13 12 12 13 13 13 12 12 12 11 11 11 11 11 12 12 12 12 12 12 12 12 11 11 12 13 12 10 9 9 8 6 6 4 3 3 2 2 3 3
15 15 14 14 14 13 12 12 13 13 13 12 12 12 10 10 9 10 11 12 13 12 12 12 13 13 13 13 13 13 12 11 10 10 9 8 7 5 4 3 2 2 3 3
16 15 15 14 14 13 12 13 13 12 12 12 11 11 9 9 9 10 11 12 12 13 13 13 13 14 14 14 15 14 13 12 12 11 10 9 8 6 5 4 3 2 2 3
15 15 14 14 13 12 12 12 12 12 12 11 11 11 8 9 9 10 10 11 12 14 14 14 14 14 14 15 15 15 14 13 12 12 11 9 8 7 6 5 4 3 2 2
15 14 14 13 13 12 11 11 11 11 11 11 11 10 9 8 8 9 9 10 12 13 13 14 15 15 15 15 15 15 14 13 13 12 12 10 9 8 7 6 4 3 2 2
15 15 14 13 13 12 11 11 12 12 11 11 10 10 9 9 8 8 8 9 11 13 12 13 15 16 17 16 16 16 14 14 13 13 12 11 10 9 8 7 5 4 3 2
16 15 14 14 13 13 12 12 12 12 11 11 10 10 9 8 8 7 8 9 11 12 12 13 15 17 17 17 17 16 16 15 14 13 13 12 11 10 9 8 7 6 4 3
17 15 15 14 14 13 13 13 13 12 12 11 10 9 8 7 7 7 8 9 10 11 12 13 15 16 17 18 18 16 16 16 14 14 14 13 12 11 10 9 8 7 6 5
17 16 15 14 14 14 13 13 13 12 12 12 12 10 9 7 6 7 8 9 10 11 13 14 15 17 17 17 17 17 16 16 15 14 14 13 13 12 12 11 10 9 8 7
18 18 17 16 14 14 14 14 14 13 13 12 12 9 8 7 7 7 8 9 10 11 13 14 16 16 17 17 17 17 17 16 16 15 14 13 13 13 13 12 12 11 10 8
19 19 18 16 15 14 14 14 14 14 13 12 10 8 8 8 7 8 8 9 10 12 14 14 16 16 16 18 18 18 17 17 17 16 15 14 14 13 14 14 13 12 11 10
20 20 18 17 17 16 15 14 13 12 11 12 10 10 9 9 9 9 9 10 10 12 13 13 15 16 16 18 19 18 17 17 17 17 16 15 15 14 14 14 14 13 13 12
21 20 19 18 17 17 15 14 13 12 12 11 11 10 10 10 10 10 10 11 11 12 13 14 15 16 17 18 18 18 18 18 17 17 17 16 15 15 14 14 14 14 13 13
22 21 21 19 18 17 15 13 13 13 12 11 11 10 11 10 10 10 11 11 11 12 13 14 16 16 17 19 19 18 18 18 18 17 17 16 16 16 15 14 14 14 14 13
23 22 21 20 19 18 14 14 13 12 12 11 10 10 11 11 11 11 11 12 12 12 14 15 16 17 18 19 19 18 18 18 17 17 18 18 17 16 15 15 14 14 13 13
24 23 22 21 20 18 16 15 14 13 12 11 10 10 10 11 11 11 11 11 11 12 14 15 16 17 18 18 19 19 18 18 17 17 17 18 18 17 16 16 15 15 15 14
25 25 24 22 20 18 16 16 15 14 12 11 10 10 10 11 11 10 11 11 12 12 14 15 16 17 17 18 18 18 18 18 17 18 18 17 18 17 17 17 17 16 16 15
27 26 25 23 22 18 17 16 16 15 12 12 11 11 11 11 11 11 11 11 11 12 13 15 15 16 17 17 18 18 18 18 18 18 18 18 18 18 18 17 17 17 16 16
29 27 26 24 23 19 18 18 17 15 14 13 12 11 11 11 11 11 12 12 12 12 13 14 15 16 16 17 18 18 18 19 19 19 19 19 20 19 19 19 18 17 17 17
30 28 26 25 22 20 20 19 17 17 15 14 12 11 11 11 11 11 12 13 13 12 13 14 15 16 16 17 18 18 18 18 18 19 19 19 19 19 19 19 19 18 17 17
29 28 27 26 23 22 21 20 18 17 16 15 14 13 12 11 11 11 12 13 13 13 14 14 15 15 16 17 17 18 17 17 17 18 19 19 19 19 19 19 19 19 19 18
30 29 28 26 24 24 22 21 20 18 17 16 16 15 14 13 12 12 13 14 14 14 14 15 15 15 15 16 17 18 19 19 19 18 19 19 19 19 18 18 18 18 19 19
30 30 29 26 25 24 23 22 21 19 18 18 16 15 15 14 14 13 13 14 15 15 15 15 16 16 15 15 16 17 18 19 18 18 17 18 18 18 18 18 19 19 19 19

GEFSCGP_500_meanwind_168.txt.gz
Wind_Speed
16 15 15 15 15 14 14 14 15 15 16 15 15 15 15 15 14 13 13 13 13 13 13 13 13 12 11 10 10 10 10 9 8 6 6 4 3 2 2 2 1 0 1 2
16 15 15 15 15 14 14 14 14 15 15 15 15 15 15 15 14 13 13 13 14 14 14 13 13 13 11 11 11 11 11 10 9 7 6 6 4 3 3 2 1 1 1 1
16 16 16 16 15 14 14 15 14 14 14 15 15 14 15 14 14 14 13 13 14 14 14 14 14 13 13 12 11 11 12 11 10 8 7 6 5 4 4 2 2 1 1 1
16 16 16 16 15 15 15 15 15 14 14 14 14 13 14 14 13 13 13 13 13 14 15 15 15 14 13 12 11 11 12 12 11 9 8 8 7 5 4 3 2 2 1 2
16 16 17 16 16 16 16 15 15 14 15 15 14 14 13 13 13 13 13 13 13 14 16 16 15 14 14 13 12 12 12 13 12 10 9 9 7 7 5 4 3 2 2 1
17 17 17 17 16 16 16 16 16 16 15 15 14 15 13 12 12 12 13 13 13 14 15 16 15 15 14 14 14 13 13 13 13 11 10 10 9 8 6 5 4 3 2 1
18 18 17 17 16 16 16 15 16 16 15 14 13 13 12 11 11 12 13 13 13 13 14 16 15 15 14 14 15 15 15 14 14 13 12 11 9 8 7 7 5 4 3 2
18 17 17 17 17 16 16 16 16 16 14 13 12 12 11 12 12 13 13 12 12 13 14 14 16 15 15 15 15 16 16 15 15 14 12 11 11 9 8 7 7 6 4 3
18 18 17 17 17 17 17 16 15 15 14 14 13 12 11 12 12 12 13 12 12 13 14 15 15 15 16 16 15 15 16 15 15 15 14 12 12 10 9 8 8 7 6 4
19 18 17 17 17 17 17 16 15 15 14 14 13 12 12 12 12 12 12 12 13 14 14 15 16 16 17 17 16 16 16 15 16 16 14 13 12 11 10 9 9 8 7 6
19 19 18 17 16 16 16 16 16 16 15 14 12 11 12 11 12 12 12 12 12 13 14 15 16 16 17 17 17 16 16 16 16 16 14 13 12 12 11 10 10 10 9 7
19 19 19 18 17 16 16 16 16 15 15 14 13 11 11 11 11 12 12 12 12 13 14 15 16 17 17 18 18 17 16 16 16 16 15 14 13 12 12 10 10 10 10 9
20 20 20 19 18 17 16 16 15 15 15 14 13 11 11 10 10 10 11 11 11 13 13 15 16 17 18 18 18 17 16 16 16 16 15 14 13 13 12 11 11 11 11 10
22 21 20 19 18 17 16 16 16 15 15 13 11 11 11 10 10 10 10 11 11 12 13 14 15 17 18 19 18 18 16 16 16 16 15 14 13 13 12 11 11 12 12 11
23 22 21 19 19 19 18 17 17 15 14 13 12 12 11 12 11 11 11 11 11 11 12 13 14 16 18 18 18 18 17 17 16 16 16 14 13 12 12 11 11 11 11 12
24 23 22 21 20 20 19 18 17 16 15 14 13 13 13 13 13 12 12 12 12 12 12 13 14 15 17 17 18 18 18 18 17 16 16 16 14 13 12 12 12 12 12 12
25 24 23 22 21 20 19 17 17 17 15 14 13 13 15 14 14 13 13 13 13 13 14 13 14 15 17 17 18 18 19 19 18 17 16 15 15 14 14 13 13 13 12 13
27 26 25 23 22 22 18 17 17 17 16 14 13 14 14 14 14 13 13 13 13 14 14 14 14 16 17 18 18 18 19 19 19 18 17 17 16 15 14 14 14 13 13 12
28 27 26 25 24 21 19 18 17 16 15 14 14 14 14 13 12 12 12 12 13 13 14 14 16 17 17 17 18 19 19 19 19 19 18 17 17 16 15 15 15 14 14 13
28 28 27 26 25 22 18 18 18 17 16 15 15 14 13 13 11 11 12 12 12 13 14 14 16 17 17 18 18 19 19 19 19 18 18 18 18 18 17 16 16 16 15 15
30 29 29 27 26 22 19 19 18 18 15 16 16 15 14 13 13 13 13 13 13 13 14 15 17 17 17 18 18 19 19 20 20 19 18 18 18 18 17 17 17 17 17 16
31 30 29 28 26 22 20 19 19 17 17 17 16 15 14 13 13 13 13 13 13 14 15 15 17 17 17 17 18 18 19 20 19 19 18 18 18 17 17 17 17 17 17 17
31 30 28 28 26 23 22 21 20 19 19 18 17 16 15 14 14 14 14 14 14 14 15 15 16 17 17 17 17 18 18 18 18 18 18 18 18 17 17 17 17 18 17 17
31 30 30 29 27 26 24 23 23 21 20 20 19 18 16 15 14 14 15 15 15 14 15 15 16 16 17 17 17 18 18 18 19 18 18 19 18 17 18 18 18 18 18 18
31 31 31 29 27 27 26 25 24 23 22 21 20 19 18 16 15 15 15 15 16 15 15 15 15 16 16 16 17 17 17 16 16 17 17 18 17 17 17 17 17 18 19 19
31 31 31 29 28 28 27 25 25 24 23 22 21 20 19 17 16 16 15 15 15 16 16 15 15 16 16 16 16 17 17 17 16 16 16 16 17 17 18 17 18 19 18 18

GEFSCGP_500_meanwind_174.txt.gz
Wind_Speed
13 13 12 13 13 13 12 12 12 13 13 13 13 14 14 14 14 14 13 14 14 13 13 12 12 13 13 12 12 11 10 10 9 8 7 7 6 6 5 4 3 3 2 1
13 12 13 14 13 13 13 12 13 13 13 13 13 14 14 14 14 14 14 14 14 14 13 13 13 14 14 14 13 12 12 11 10 9 8 7 7 6 5 4 4 4 3 2
13 13 13 14 14 13 13 13 13 13 13 13 13 13 13 13 14 14 13 14 14 14 14 14 14 14 15 15 14 14 14 12 11 10 9 8 8 7 6 6 5 4 3 2
15 14 14 14 14 14 14 14 14 14 13 13 13 13 14 13 13 14 14 13 14 14 14 14 15 15 16 16 15 15 14 13 12 12 11 9 9 8 7 6 6 4 4 3
16 16 15 15 15 15 15 14 14 14 14 14 14 14 14 13 12 13 13 13 13 13 13 14 15 15 16 16 15 15 15 14 14 13 11 11 9 9 8 7 6 5 4 3
17 17 16 15 16 15 15 15 15 14 14 14 14 14 14 14 13 13 13 13 13 14 14 14 14 15 15 16 16 16 15 14 14 13 12 12 10 10 9 8 7 6 5 4
18 18 17 16 16 16 16 15 15 14 14 14 13 14 13 13 13 13 13 13 13 14 14 13 13 14 14 15 15 15 14 14 14 14 13 12 11 11 9 9 8 7 5 4
19 19 18 17 17 16 16 15 15 14 14 13 13 14 13 13 13 13 13 13 13 13 13 13 13 13 14 15 15 15 15 15 15 14 14 13 12 12 11 10 9 8 7 5
19 19 18 17 17 17 16 15 15 15 14 14 14 14 13 13 13 13 13 13 13 13 13 14 13 14 14 15 16 15 15 15 15 15 14 13 12 12 12 11 10 9 8 7
19 19 19 18 17 17 16 16 15 14 14 14 13 13 13 12 12 12 13 12 12 12 13 14 14 14 14 15 15 16 15 15 15 15 15 14 14 13 13 12 11 10 9 8
20 19 19 18 17 16 16 16 15 15 15 14 13 13 12 12 11 11 11 12 12 11 12 13 13 14 14 14 15 15 16 16 16 16 16 15 15 15 14 13 12 11 10 9
20 20 19 18 18 18 17 16 15 15 15 14 14 13 13 12 11 11 11 11 11 11 12 13 13 14 14 14 15 15 16 16 16 16 16 15 15 15 14 13 13 12 11 10
22 21 20 20 19 19 18 17 16 15 15 14 13 13 13 12 12 12 12 12 12 11 11 12 13 14 15 15 15 16 16 16 16 15 15 15 15 15 14 13 13 12 11 11
23 22 22 20 19 19 18 18 17 16 15 14 13 13 13 12 12 12 11 11 12 12 11 12 13 14 14 15 15 16 15 16 16 15 14 14 14 14 14 13 13 12 12 11
24 24 23 22 22 21 20 19 19 18 16 15 14 14 13 13 12 12 12 11 11 11 12 12 13 13 14 15 16 16 16 16 15 15 14 14 14 14 13 13 13 13 12 12
25 25 24 23 23 23 22 21 20 19 18 16 15 14 15 14 13 13 13 12 11 11 12 12 12 13 13 15 16 16 16 16 15 15 15 15 15 14 14 13 12 12 12 12
26 25 25 24 23 23 23 21 20 19 18 18 16 14 16 15 14 13 13 12 12 12 12 13 13 13 13 14 15 16 16 16 15 15 15 16 15 14 14 13 13 13 13 12
28 27 25 25 25 25 21 21 21 20 19 18 16 15 15 15 15 14 13 13 12 12 12 12 13 14 14 14 15 16 17 16 16 15 16 17 16 15 14 14 14 13 13 13
29 28 27 26 26 24 22 21 20 20 19 18 17 16 15 15 15 14 14 13 12 11 12 13 14 14 14 15 15 15 17 17 17 16 16 17 17 16 15 14 14 14 14 14
30 29 29 28 27 25 22 22 21 21 20 19 18 17 16 15 14 14 14 13 12 12 12 13 13 14 14 14 15 15 15 17 17 17 18 18 18 17 17 17 16 15 16 15
31 31 30 29 28 26 23 22 22 21 19 19 18 17 16 15 15 14 14 14 14 13 13 14 14 14 15 15 15 15 16 16 17 18 18 18 18 17 18 18 17 17 16 16
30 32 31 30 29 27 24 24 23 20 20 19 18 18 17 16 15 15 15 15 14 14 14 14 14 15 15 15 16 17 18 18 18 18 19 19 18 17 17 17 18 18 17 17
31 31 31 30 29 27 25 24 22 22 20 19 19 19 18 18 17 16 15 15 15 15 15 15 16 16 16 16 15 16 18 19 18 18 19 19 18 18 17 17 17 18 17 17
31 31 31 30 29 28 27 26 24 24 22 21 20 20 19 18 17 17 16 16 16 16 16 17 17 17 17 17 17 17 18 18 19 19 19 19 19 18 18 17 17 17 17 17
32 31 30 30 29 29 28 26 25 25 24 23 22 21 20 19 18 18 17 16 16 16 16 16 17 17 17 18 18 18 18 19 20 19 19 20 20 19 19 18 18 18 18 18
32 31 30 29 29 29 28 27 26 25 25 24 23 22 21 20 20 19 18 18 17 17 17 17 17 18 18 19 19 19 19 19 19 19 20 20 20 19 19 19 19 19 19 19

GEFSCGP_500_meanwind_180.txt.gz
Wind_Speed
13 13 12 12 12 13 13 13 14 15 15 15 15 15 15 15 14 14 14 15 15 15 14 13 13 13 12 12 11 10 10 8 7 7 6 6 6 5 5 4 3 2 2 2
13 13 12 13 13 13 13 13 14 15 15 15 15 15 15 15 15 15 15 15 15 14 14 14 13 13 13 12 12 11 10 10 9 8 8 7 6 6 5 5 3 2 2 2
14 13 13 14 13 14 14 14 15 15 16 15 15 15 15 15 15 15 15 16 16 15 15 14 14 13 13 13 12 12 11 11 10 9 8 7 6 6 5 4 4 3 3 2
15 14 14 14 14 14 14 14 15 15 16 15 15 15 15 15 15 15 15 16 16 16 16 15 14 14 14 14 13 13 12 11 10 10 9 8 7 6 5 5 4 4 3 3
16 15 15 15 14 15 15 15 15 16 16 16 15 16 15 16 15 16 16 16 16 16 17 15 15 15 14 14 14 13 12 11 11 10 10 10 9 7 6 5 5 4 3 3
17 16 16 16 16 15 15 16 16 16 16 16 15 16 16 16 16 16 16 16 16 16 16 16 15 15 15 14 14 13 12 12 12 11 10 10 9 8 7 6 6 5 4 3
18 17 17 17 17 16 16 16 16 15 15 16 15 17 16 17 16 17 17 16 16 16 16 16 15 15 15 14 14 13 13 12 12 11 10 10 10 9 8 7 6 6 5 4
19 19 18 17 17 17 16 16 16 15 15 15 15 16 17 17 17 17 17 16 16 16 16 15 15 14 14 13 13 13 13 12 12 11 10 10 11 10 9 8 7 6 6 5
21 20 19 18 18 18 17 17 16 17 16 15 14 16 18 18 17 17 16 16 16 15 15 15 14 14 14 13 13 13 12 12 11 11 11 11 11 11 10 10 9 8 7 6
21 21 20 19 19 18 18 17 17 17 17 16 15 17 19 18 17 16 16 16 15 15 14 14 13 13 13 12 12 11 11 11 11 12 12 11 10 10 11 10 10 9 8 7
23 22 21 20 19 18 18 18 18 19 18 18 17 17 17 17 16 16 15 15 15 14 14 14 13 13 12 12 12 12 12 11 11 12 12 11 10 10 10 10 10 10 9 8
23 23 22 21 20 19 19 19 19 19 18 18 19 19 17 17 17 16 16 15 15 14 14 13 13 12 11 12 12 12 11 11 12 12 12 12 10 10 9 10 11 11 9 9
24 24 24 23 21 21 20 19 19 19 19 19 19 19 19 17 16 16 15 14 14 13 13 13 12 12 11 11 11 11 11 11 12 12 12 12 11 10 10 10 10 11 10 10
26 26 26 25 23 22 22 21 20 19 20 19 18 18 20 18 17 16 15 14 13 13 12 12 12 12 11 11 11 11 11 11 12 12 12 12 12 11 11 11 10 11 11 11
28 27 27 26 24 23 24 22 21 21 20 20 18 19 20 19 17 16 14 14 13 13 12 12 12 11 11 11 11 11 11 11 12 12 13 13 13 12 12 12 11 11 12 11
29 29 28 27 26 25 24 24 23 22 21 20 19 19 19 19 18 16 14 13 13 13 13 12 12 12 12 12 11 11 12 12 12 13 13 14 14 14 13 13 12 11 11 11
29 29 29 28 27 26 25 23 22 22 21 21 20 18 19 19 18 17 15 14 13 13 13 13 12 12 12 12 12 12 12 13 13 13 13 13 14 14 13 13 12 11 11 10
31 30 30 29 28 28 25 23 23 23 23 22 20 19 20 20 18 17 16 15 14 14 13 13 13 13 12 11 12 12 12 13 13 13 13 13 13 14 14 13 13 13 12 11
32 30 31 31 30 29 25 24 23 23 23 22 21 20 20 20 19 17 16 15 14 14 13 13 13 13 13 12 12 13 13 14 14 14 14 14 14 14 15 14 14 13 13 13
33 31 31 31 31 30 26 24 24 23 23 21 20 20 20 20 19 17 15 14 15 15 14 13 14 13 13 13 13 13 13 13 14 14 14 15 15 15 15 15 15 15 14 14
33 33 32 31 31 31 27 25 25 25 23 21 21 21 20 20 19 18 16 15 15 15 15 14 14 14 14 14 14 14 14 14 14 14 14 15 16 16 16 16 16 16 15 15
34 33 33 32 32 31 28 28 26 24 22 21 20 20 21 20 20 19 17 16 15 16 15 15 15 15 15 15 15 15 15 15 15 16 16 15 16 17 17 17 17 17 17 17
33 33 33 32 31 29 28 28 26 24 23 22 21 20 20 20 20 19 18 17 16 16 16 16 16 16 16 15 15 15 16 16 16 16 16 16 16 17 17 17 17 17 18 17
33 33 33 33 31 31 29 28 27 25 25 23 23 22 21 21 20 19 19 18 17 16 16 16 16 17 17 16 16 16 17 17 17 17 17 17 17 17 18 18 19 19 19 19
33 33 33 33 32 31 30 28 26 26 25 24 23 22 22 21 20 20 20 19 17 17 16 16 16 17 18 18 17 17 17 17 16 17 18 18 19 19 19 20 19 19 19 19
31 32 33 31 31 32 32 31 28 27 25 25 24 23 22 22 21 20 20 19 18 17 17 17 17 17 17 18 18 18 18 18 17 17 18 18 19 20 20 20 19 19 19 19

GEFSCGP_500_meanwind_186.txt.gz
Wind_Speed
13 13 13 12 12 12 12 12 12 11 12 12 11 11 11 10 10 10 11 10 10 10 11 11 10 9 9 9 8 8 7 7 7 7 7 7 6 5 5 5 5 4 4 4
14 13 13 13 13 12 12 12 11 11 11 12 12 11 11 11 11 11 10 10 10 10 11 10 10 9 9 9 9 9 8 8 8 7 6 6 6 5 5 5 5 4 3 4
15 14 14 13 13 12 12 12 12 12 12 12 12 11 11 11 11 11 11 11 10 10 10 11 10 10 10 9 9 9 8 8 8 7 6 6 6 5 4 4 5 5 4 4
15 15 15 14 13 13 13 13 14 14 13 12 12 11 10 11 11 11 11 11 10 10 11 11 11 10 11 10 9 9 9 8 8 8 8 7 6 5 5 5 5 5 5 5
16 15 16 15 14 14 14 14 14 14 14 13 12 12 9 10 10 10 11 11 11 11 11 11 11 11 11 11 10 9 9 9 9 9 8 7 6 7 6 6 5 5 5 5
17 17 17 15 15 15 15 14 14 14 14 13 12 12 9 10 10 11 11 12 11 11 11 11 11 11 11 11 11 11 10 9 9 9 8 8 8 8 8 7 7 6 6 5
17 17 16 15 15 15 14 14 15 15 15 13 13 13 10 11 11 11 11 11 11 11 11 11 11 11 11 11 10 11 11 9 9 9 9 9 9 9 9 9 8 7 6 6
18 17 16 16 16 15 15 15 15 16 15 13 14 14 12 12 11 11 11 11 11 10 10 10 10 10 11 11 10 10 11 10 9 9 9 9 10 10 10 10 9 8 7 7
19 18 17 17 16 16 16 16 15 16 16 15 15 14 13 12 11 11 11 11 10 10 10 10 11 11 11 11 10 9 11 11 10 9 9 10 10 10 11 10 10 9 8 7
21 20 19 18 18 17 17 16 16 16 17 17 15 14 13 12 11 10 11 12 12 11 11 10 11 11 11 11 11 10 10 10 10 10 9 10 11 11 11 11 10 9 8 7
22 22 21 20 20 18 17 18 18 18 18 18 17 15 14 13 12 12 12 12 12 11 10 9 9 10 10 10 10 9 9 10 10 11 10 11 11 11 11 10 10 10 9 8
24 23 22 21 20 20 19 19 18 18 18 18 18 16 14 14 14 13 13 12 11 10 10 9 9 9 8 8 9 9 10 10 10 11 11 12 12 12 12 11 11 11 10 10
25 25 24 23 22 22 21 20 20 19 19 19 19 16 14 14 14 14 13 12 10 9 9 9 9 9 9 8 9 9 10 11 11 12 12 12 13 12 12 11 11 11 11 10
27 27 26 25 23 23 22 22 21 21 20 19 18 16 15 14 14 13 13 12 10 10 10 10 9 9 9 9 10 10 10 10 11 11 12 13 13 13 12 12 12 11 11 11
28 28 27 26 25 25 25 24 23 22 21 19 17 16 15 14 13 13 13 12 11 10 10 10 9 9 10 10 10 11 10 10 10 11 12 13 13 14 13 13 12 12 11 11
30 29 28 28 27 26 26 25 24 22 21 20 18 16 15 15 14 14 13 11 10 10 10 9 9 10 10 11 10 11 11 11 11 12 12 13 13 13 13 13 13 12 12 12
32 31 30 29 29 28 27 25 24 23 21 20 19 16 16 15 15 14 13 11 10 10 10 10 10 10 11 11 11 11 11 12 12 12 12 13 13 13 13 13 13 13 13 12
33 32 32 31 30 31 26 24 24 23 22 21 19 17 16 15 14 14 13 12 12 11 10 11 10 11 12 12 12 12 12 12 12 13 13 13 13 13 13 14 14 14 14 13
32 33 33 33 32 30 27 25 24 24 23 22 20 18 17 16 15 15 14 13 13 12 11 11 11 11 13 13 13 13 13 12 12 13 14 14 14 14 14 14 14 15 14 14
32 33 35 34 34 32 27 24 24 25 24 22 21 20 18 17 16 15 15 14 14 13 12 12 11 11 12 13 13 13 14 13 13 13 14 14 14 15 15 15 15 16 16 15
32 33 34 34 34 32 27 25 25 26 22 21 21 21 20 18 16 16 16 16 14 13 14 13 13 12 12 13 13 13 14 14 13 14 14 14 14 14 14 15 15 16 16 16
32 33 33 34 33 30 26 26 26 24 22 22 22 21 20 18 18 17 17 17 16 15 15 15 14 13 13 13 14 14 15 15 14 14 15 15 15 15 15 15 15 15 16 17
33 33 33 32 31 29 28 27 26 24 24 23 22 22 21 19 18 17 18 17 17 16 15 15 15 15 15 15 15 15 15 15 15 15 15 15 16 16 16 16 16 16 16 17
31 32 33 32 29 30 29 28 26 25 24 23 22 22 22 21 19 19 19 18 18 17 16 16 16 16 15 16 15 16 16 15 16 15 15 16 16 17 17 17 17 17 17 17
31 32 32 32 30 31 30 29 26 26 25 24 23 22 22 22 21 20 20 19 18 18 17 17 17 16 16 17 17 17 16 16 16 16 17 16 16 17 17 17 17 18 18 18
29 31 32 30 30 32 30 30 28 27 26 25 24 23 21 20 21 21 21 20 19 18 18 18 18 17 17 17 18 18 17 17 17 17 18 18 17 17 18 18 18 18 19 19

GEFSCGP_500_meanwind_192.txt.gz
Wind_Speed
16 16 15 15 15 14 13 12 12 12 13 13 12 13 13 13 13 13 12 12 12 12 12 11 11 11 10 9 9 9 9 9 7 7 6 6 6 5 5 5 5 4 4 4
18 17 15 15 16 15 13 13 12 12 13 13 13 13 13 12 13 12 12 11 12 12 12 11 11 11 10 9 9 9 8 9 8 7 7 6 6 6 5 5 5 4 4 4
19 17 16 17 17 16 14 14 13 13 13 14 13 12 13 12 12 12 11 11 11 12 12 11 11 11 11 10 9 9 9 8 8 7 7 7 6 6 5 5 5 5 5 5
19 18 18 18 17 16 15 14 14 14 14 13 14 12 12 13 12 11 12 11 11 11 12 12 12 12 12 11 11 10 10 9 8 7 7 7 7 6 6 5 5 5 5 5
19 18 18 18 17 16 15 15 16 16 15 14 13 13 11 12 12 11 12 12 12 12 12 12 12 12 12 12 11 11 10 10 9 8 8 7 6 6 5 5 5 4 4 4
20 19 19 18 17 17 17 17 17 17 17 15 13 13 10 11 11 12 12 12 12 12 12 12 12 11 11 11 11 11 10 10 10 10 9 8 8 7 6 6 6 6 5 4
21 20 20 19 19 19 19 18 18 17 17 15 14 14 11 11 11 12 12 12 12 12 12 11 11 11 11 11 11 10 10 9 10 10 9 8 8 8 8 7 7 7 6 6
22 21 20 20 20 20 19 19 18 18 17 16 15 14 12 11 12 13 12 12 13 12 12 11 12 11 11 11 10 10 9 8 9 10 10 8 8 8 8 8 7 7 7 7
23 22 21 21 20 20 20 20 19 19 18 17 16 14 12 12 13 13 13 13 12 12 12 12 12 11 10 10 10 9 9 9 9 9 9 9 9 9 8 8 8 8 8 7
24 23 22 22 21 21 20 20 20 20 19 18 17 14 12 12 13 13 13 13 13 12 12 11 11 10 9 9 9 9 9 9 9 9 9 10 10 9 9 9 9 8 8 7
25 25 23 23 22 21 21 21 20 20 20 18 17 14 13 13 13 13 13 13 13 12 11 11 10 10 9 8 8 8 9 8 9 10 10 10 10 10 10 10 10 10 9 8
26 26 25 24 23 22 22 21 20 20 19 19 18 16 14 13 14 13 13 13 12 12 11 10 10 10 9 8 7 8 8 9 9 10 11 11 11 11 11 11 11 11 10 10
26 27 26 25 24 23 23 22 21 21 21 20 19 17 15 15 14 14 14 13 12 12 11 10 10 9 9 8 8 8 8 9 9 10 11 11 12 12 12 12 12 11 11 11
27 27 27 26 25 23 23 23 23 23 23 21 19 17 16 15 15 15 15 14 13 12 11 10 10 10 9 9 9 9 9 10 10 10 11 11 12 12 12 12 12 12 12 12
27 27 26 26 26 25 24 24 24 24 23 21 19 18 16 16 16 16 15 14 13 12 11 11 10 10 10 10 9 10 10 10 10 10 11 11 12 12 12 12 12 12 12 12
29 28 27 26 26 27 26 25 25 24 23 22 21 18 17 17 16 16 15 14 13 13 12 12 11 10 10 10 10 10 10 10 10 9 10 11 11 12 11 12 12 12 13 12
31 30 29 28 27 28 29 26 25 24 24 23 21 19 18 17 16 15 15 14 14 13 13 12 12 11 11 10 11 11 11 11 10 10 11 11 11 11 11 11 12 12 13 13
32 31 30 30 29 30 28 26 26 26 24 23 22 21 19 17 16 16 15 15 14 14 13 12 11 11 11 11 11 11 11 11 11 12 12 12 12 11 11 12 13 13 13 13
31 31 30 30 31 30 28 27 27 27 25 24 23 22 21 19 18 16 16 15 15 14 14 12 11 11 11 11 11 11 11 12 12 12 13 13 13 12 12 12 13 13 13 13
29 31 31 30 30 29 26 26 27 27 26 24 24 23 22 20 19 17 17 17 16 15 14 13 13 12 12 12 11 11 12 12 12 13 14 14 14 14 13 12 13 14 14 14
29 31 31 31 30 28 26 26 27 27 25 24 23 23 22 21 19 19 19 18 18 17 16 15 14 14 13 13 13 12 12 12 13 14 14 14 14 14 14 14 14 14 15 14
30 31 31 31 30 27 26 27 28 26 25 25 24 23 23 21 20 20 20 20 19 18 18 17 16 15 15 14 14 13 13 13 13 14 14 15 15 15 14 14 14 15 16 15
31 31 32 33 30 27 27 28 28 27 26 25 25 24 24 23 22 22 21 21 21 20 20 19 18 16 16 16 15 14 14 14 13 13 14 14 15 15 15 15 15 15 15 16
30 32 32 31 30 30 29 28 28 29 28 27 26 26 25 24 23 24 23 22 21 21 21 20 19 18 17 17 17 16 16 16 15 14 14 14 15 15 16 16 16 15 15 16
31 32 33 32 30 30 29 30 29 29 29 28 27 27 26 26 25 25 24 22 22 21 21 21 20 19 18 18 18 18 17 17 16 16 16 16 16 16 16 16 16 16 17 17
30 31 31 32 32 32 29 29 30 29 28 27 27 27 26 26 25 25 25 24 22 22 22 21 21 20 20 19 19 19 18 17 17 17 16 16 17 17 16 16 17 16 17 17